GEFSNGP_500_meanwind_102.txt.gz
Wind_Speed
10 10 11 11 10 10 10 10 10 9 7 7 6 5 4 4 4 5 6 7 8 10 11 12 13 14 16 17 18 19 20 21 22 22 23 23 23 23 22 21 21 19 18 17
12 12 12 11 10 10 11 11 10 9 8 7 6 5 5 5 5 6 7 8 9 10 11 12 13 14 15 17 18 19 20 20 21 21 22 23 23 23 22 21 21 20 19 18
13 14 13 11 10 11 11 11 11 10 9 8 7 6 6 6 6 7 8 8 9 10 11 12 13 14 15 17 18 19 19 20 20 21 21 22 22 22 22 21 21 20 19 18
14 14 14 11 12 12 12 11 11 11 10 9 8 8 7 8 8 8 9 9 10 11 12 13 14 15 16 17 18 19 19 20 20 21 21 21 21 21 21 21 20 20 19 18
14 14 13 12 13 13 12 12 12 11 11 10 10 9 9 9 9 10 10 11 11 12 13 14 15 16 17 17 18 19 19 20 20 20 21 21 21 21 21 21 20 20 19 18
14 14 13 13 13 13 13 12 12 12 12 11 11 11 11 11 11 12 12 12 13 13 14 15 16 16 17 18 19 19 20 20 20 21 21 21 21 21 21 20 20 19 19 18
15 14 13 13 14 13 13 12 13 13 13 12 12 12 13 13 13 13 14 14 14 15 15 16 17 18 18 19 19 20 20 21 21 21 21 21 21 21 20 20 19 19 19 18
17 15 13 15 14 14 14 14 14 14 14 14 14 14 14 14 15 15 15 15 16 16 17 17 18 19 20 20 20 21 21 21 22 22 21 21 21 21 21 20 20 19 19 18
19 17 16 17 16 16 16 16 16 16 16 16 16 16 16 16 16 17 17 17 17 17 18 19 19 20 21 21 21 22 22 22 23 23 23 22 22 22 22 21 21 20 19 19
20 19 19 19 19 18 18 18 18 18 17 17 18 18 18 18 18 18 19 19 19 19 20 20 21 21 22 22 23 23 23 24 24 24 24 24 24 23 23 23 22 22 21 20
22 21 22 22 21 21 20 20 20 20 19 19 20 20 19 19 20 20 20 20 20 21 21 22 22 23 23 24 24 24 25 25 26 26 26 26 26 25 25 24 24 23 23 22
24 24 25 25 24 23 23 22 22 22 22 21 21 21 21 21 21 21 21 22 22 23 23 24 24 24 25 25 25 26 26 27 27 27 27 27 27 27 27 26 26 25 24 23
28 28 28 28 27 26 26 25 25 25 25 24 24 24 23 23 23 23 24 24 24 24 25 26 26 26 27 27 27 28 28 27 28 28 27 27 27 27 28 28 28 27 26 25
32 31 31 30 30 29 29 29 28 28 27 27 27 26 26 26 26 26 26 26 26 27 27 27 28 28 28 29 29 29 29 29 29 29 29 29 29 28 28 28 29 29 29 28
35 35 34 33 33 33 32 32 31 31 30 30 29 29 29 29 29 29 29 29 29 29 29 30 30 30 30 30 30 31 31 31 31 31 31 31 31 31 31 31 30 30 30 30
37 38 37 36 35 35 35 35 34 33 33 33 32 32 32 32 32 31 31 31 31 31 31 31 31 31 32 32 32 32 33 33 33 33 33 33 34 34 34 34 33 32 32 32
40 39 39 38 38 37 37 37 36 35 35 35 35 35 35 35 34 34 33 33 33 33 33 33 33 33 34 34 34 35 35 35 35 35 35 35 35 35 35 35 35 35 34 34
42 42 41 41 41 40 40 39 39 38 38 38 38 37 37 37 36 36 36 36 35 35 35 36 36 36 36 36 36 36 36 36 36 36 37 37 37 37 37 36 36 35 35 35
43 43 44 44 43 43 42 42 41 41 41 41 40 40 40 39 39 39 39 38 38 38 38 38 38 38 38 38 38 38 37 38 38 38 38 38 38 38 37 37 37 36 36 36
43 43 44 45 45 45 44 44 44 43 43 42 42 42 42 41 41 41 40 40 40 40 40 40 40 39 39 39 39 39 39 39 39 40 40 39 39 38 38 38 38 38 38 39
44 43 44 44 44 44 45 45 45 45 44 44 44 44 44 43 43 42 42 42 42 41 41 41 41 41 41 41 40 40 40 40 41 41 40 40 40 40 40 40 40 40 41 41
43 43 43 44 44 44 44 44 45 45 45 45 45 45 45 45 45 44 44 44 43 43 42 42 42 42 42 42 41 41 42 41 41 41 41 41 41 41 41 42 42 42 42 43
42 42 43 43 43 44 44 44 44 45 45 45 45 45 45 45 45 45 44 44 44 43 43 43 43 43 43 43 43 42 42 42 42 42 42 42 42 43 43 44 44 44 44 45
42 42 41 42 42 43 43 43 44 44 45 45 45 45 45 45 45 45 45 44 44 44 44 44 44 43 43 43 43 43 43 43 43 43 43 44 44 44 44 44 45 45 46 46
42 43 42 42 41 42 42 42 43 43 44 44 44 44 45 45 45 45 45 45 45 45 45 45 44 44 44 44 44 44 44 45 45 45 45 45 45 44 45 45 46 46 47 48
42 42 42 42 41 41 41 42 42 42 42 43 43 43 44 44 45 45 45 45 45 45 45 45 45 44 44 44 45 45 45 45 45 45 45 44 44 45 45 46 46 47 48 49
40 40 41 42 42 42 42 42 42 42 42 42 42 43 43 44 44 44 44 44 44 44 45 45 45 45 45 45 45 45 45 45 44 44 44 44 45 45 46 46 47 48 49 50

GEFSNGP_500_meanwind_108.txt.gz
Wind_Speed
11 12 12 12 13 13 13 12 12 11 11 12 12 11 11 10 9 8 8 7 7 8 8 9 11 12 13 14 16 17 18 19 20 21 21 21 21 21 21 21 20 20 19 18
11 13 13 13 13 13 12 12 12 12 12 13 13 12 11 11 10 9 9 8 8 8 9 9 10 12 13 14 15 16 17 18 19 20 21 21 21 20 20 20 20 19 18 17
13 14 14 13 13 14 13 12 12 12 12 13 13 13 12 12 11 10 10 9 9 9 9 10 11 12 13 14 15 16 17 18 18 19 20 20 20 20 20 20 20 19 18 17
14 14 15 13 14 14 13 13 13 13 13 14 14 14 13 13 12 11 11 11 10 10 10 10 11 12 13 14 15 16 17 17 18 19 19 19 19 19 19 19 19 19 18 18
16 16 14 13 14 15 14 13 14 14 14 14 15 15 14 14 13 13 12 12 12 12 12 12 12 13 13 14 15 16 17 17 18 18 19 19 19 18 18 18 18 18 18 17
17 16 15 13 15 15 15 14 15 15 15 15 16 16 16 15 15 14 14 14 13 13 13 13 13 13 14 15 16 17 17 18 18 18 19 19 18 18 18 18 18 18 17 17
18 17 15 14 15 16 16 15 16 16 16 16 17 17 17 17 16 16 16 15 15 15 15 14 14 15 15 16 17 17 18 18 18 19 19 19 19 19 18 19 18 18 18 17
20 19 17 16 17 17 17 17 17 18 18 18 18 18 18 18 18 17 17 17 16 16 16 16 16 16 16 17 17 18 18 18 19 19 19 19 19 19 19 19 19 18 18 18
21 20 19 19 20 20 20 20 20 20 20 20 20 20 20 20 19 19 19 18 18 18 18 18 18 18 18 18 18 19 19 19 20 20 20 20 20 20 20 20 19 19 19 18
23 21 22 22 22 22 23 23 22 22 22 22 22 22 22 22 21 21 21 20 20 20 20 20 20 19 20 20 20 20 20 20 21 21 21 21 21 21 21 21 20 21 21 20
26 25 25 25 25 25 25 25 25 24 24 24 24 24 24 24 24 23 23 22 22 22 22 22 22 21 21 22 22 22 22 22 22 22 22 22 22 22 22 22 22 22 22 22
29 29 30 28 28 29 28 27 27 27 26 25 25 25 25 25 25 25 25 24 24 24 24 24 23 23 23 23 23 23 23 23 23 23 23 23 24 24 24 24 24 24 24 24
34 33 34 32 31 31 31 30 30 29 29 28 28 28 28 27 27 27 27 27 26 26 26 26 26 26 26 25 25 25 25 25 25 25 25 25 25 26 26 26 26 26 26 26
38 37 36 35 35 34 34 34 33 32 31 31 31 31 31 30 30 29 29 29 29 28 28 28 28 28 28 27 27 27 27 26 26 27 27 27 27 28 28 28 28 28 28 28
41 41 39 38 38 37 37 37 36 35 34 34 33 33 33 33 32 32 32 31 31 31 30 30 30 30 30 29 29 29 29 29 29 29 29 29 30 30 30 30 30 30 30 30
44 44 43 41 40 39 39 39 38 37 37 36 36 36 35 35 35 35 35 34 33 33 33 32 32 32 32 32 31 31 31 31 31 31 31 31 31 32 31 31 31 31 31 31
45 45 45 44 43 42 42 41 41 40 39 39 38 38 38 38 38 38 38 37 37 36 35 35 35 34 34 34 34 33 33 34 33 33 33 33 33 33 33 33 33 32 33 33
47 47 47 47 46 45 44 43 43 42 42 42 41 40 40 40 40 40 39 39 39 38 38 37 37 37 36 36 36 36 36 36 36 35 35 35 35 35 35 35 35 34 35 34
47 47 48 48 47 47 46 45 45 44 44 44 43 43 43 42 42 42 41 41 41 40 40 39 39 39 38 38 38 38 38 38 38 37 37 37 37 37 37 37 37 37 36 36
46 47 47 47 47 47 47 47 47 46 46 45 45 45 45 45 45 44 44 44 43 43 42 42 41 41 41 41 41 41 40 40 39 39 39 39 39 39 39 38 38 38 38 38
46 46 46 47 47 48 48 48 48 47 47 47 47 46 46 46 46 46 45 45 45 45 44 44 44 44 44 44 43 43 43 42 42 42 41 41 41 40 40 40 40 40 40 40
44 45 46 47 47 47 48 48 48 48 48 48 48 48 47 47 47 46 46 46 46 46 46 46 46 46 46 46 45 45 44 44 44 43 42 42 42 42 41 41 41 41 41 41
43 43 44 45 46 46 46 47 48 48 48 48 48 48 48 48 47 47 48 47 47 47 48 48 48 48 47 47 47 46 46 45 45 44 44 44 44 43 43 43 43 43 43 43
42 42 43 43 44 45 45 46 47 48 48 48 49 49 49 48 48 48 48 48 48 48 48 48 48 48 48 48 47 47 46 46 46 45 45 45 45 44 44 44 44 44 44 44
41 42 42 43 43 44 44 44 45 46 47 47 48 48 48 48 48 48 48 48 48 48 48 48 47 47 47 47 47 46 46 46 46 45 45 45 45 45 44 45 45 44 44 44
40 41 42 42 42 42 43 43 43 44 44 44 45 45 45 45 46 46 46 46 46 46 46 46 46 46 46 46 45 45 45 45 44 44 44 45 45 45 45 45 45 44 45 45
40 40 40 40 40 41 41 42 42 42 42 43 43 44 44 44 44 44 44 44 44 44 44 45 45 45 44 44 44 44 44 44 43 43 43 44 44 44 44 43 44 44 44 45

GEFSNGP_500_meanwind_114.txt.gz
Wind_Speed
9 9 10 10 11 11 11 11 11 11 11 12 13 14 14 14 14 13 12 11 10 9 9 9 8 8 8 9 10 11 12 13 14 15 16 17 18 18 17 17 16 15 14 14
10 11 11 11 12 13 13 13 13 13 12 13 14 14 14 15 14 14 13 12 12 11 10 10 9 9 9 9 10 11 12 13 14 15 15 16 17 17 17 16 16 15 14 13
12 13 13 13 14 14 15 15 15 14 13 14 15 15 15 15 15 15 14 13 13 12 11 11 11 10 10 10 10 11 12 12 13 14 15 16 16 16 16 16 16 15 14 13
14 15 16 15 15 16 16 16 16 15 15 15 15 15 15 16 16 15 15 15 14 13 13 12 12 12 11 11 11 12 12 13 13 14 15 15 16 16 16 16 15 14 14 13
16 16 16 16 16 16 17 17 17 17 16 16 16 16 16 16 16 16 16 16 15 15 15 14 13 13 13 13 13 13 13 13 14 14 15 15 15 15 15 15 15 14 14 13
17 18 17 16 16 17 18 18 18 18 17 17 17 17 17 17 17 17 17 17 17 17 16 16 15 15 14 14 14 14 14 14 14 15 15 15 16 15 15 15 15 15 14 14
19 20 19 18 18 18 19 19 19 19 19 18 18 18 18 18 19 19 19 19 18 18 18 17 17 16 16 15 15 15 15 15 16 16 16 16 16 16 15 15 15 15 15 15
22 22 21 21 21 21 21 21 20 20 20 20 20 20 20 20 20 20 20 20 20 20 20 19 18 18 18 17 17 17 17 17 17 17 17 17 17 17 16 16 16 16 16 16
24 24 24 24 24 24 24 23 23 23 22 22 22 22 21 21 22 22 22 22 22 22 22 21 20 20 19 19 19 19 19 18 18 18 18 18 18 17 17 17 17 17 17 17
27 26 27 27 27 27 27 26 26 25 25 25 24 24 24 23 23 23 24 24 24 24 23 23 22 22 22 22 21 21 21 20 20 20 19 19 19 19 19 19 19 18 19 19
31 30 31 31 31 31 30 29 29 28 27 27 27 26 26 26 25 25 25 26 26 26 25 25 25 24 24 24 24 23 23 22 22 21 21 21 20 20 20 20 20 20 20 20
34 33 35 35 35 34 33 32 32 31 30 30 29 29 28 28 28 28 28 28 28 28 28 28 27 27 26 26 25 25 25 24 24 23 23 22 22 22 22 22 22 22 22 22
38 37 38 37 37 37 37 36 35 34 34 33 32 32 31 31 30 30 30 30 30 30 30 30 29 29 28 28 27 27 27 26 26 25 25 25 24 24 24 24 24 24 24 24
41 41 40 40 40 40 40 39 38 37 37 36 35 35 34 33 33 32 32 32 32 32 32 32 31 31 30 30 29 29 29 28 28 27 27 27 27 26 26 26 26 26 26 26
44 44 43 43 42 42 42 42 41 39 39 39 38 37 37 36 35 34 34 34 34 34 33 33 33 33 32 31 31 30 30 30 30 29 29 29 29 29 28 28 29 28 28 28
45 46 46 45 45 45 45 45 44 42 41 41 40 40 39 39 38 38 37 36 36 36 36 36 36 35 35 34 33 33 32 32 32 31 31 31 31 31 31 31 31 31 31 30
46 46 47 47 47 47 47 46 46 45 44 43 42 42 41 41 41 40 39 39 38 38 39 38 38 37 37 36 36 35 34 34 34 33 33 33 33 33 33 33 33 33 33 33
47 47 47 47 47 47 47 47 47 47 46 46 45 44 43 43 42 42 42 42 41 41 40 40 40 40 40 40 39 38 37 36 36 36 35 35 35 35 35 35 35 35 34 35
47 47 46 47 47 47 47 47 47 48 47 47 47 46 45 45 44 44 44 43 43 43 42 42 42 42 42 42 41 41 40 39 38 38 38 37 37 37 37 37 37 37 36 36
45 45 45 45 45 45 45 46 46 46 47 47 47 47 47 46 46 45 45 45 44 44 44 44 44 44 44 43 43 43 42 41 41 40 39 39 39 39 39 39 39 38 38 38
44 44 44 44 44 44 45 45 46 46 46 46 46 46 47 47 46 46 46 45 45 45 45 45 45 45 45 45 44 44 44 43 43 42 42 42 41 41 40 40 40 39 39 39
43 43 43 42 42 42 43 44 45 45 46 46 47 47 46 47 47 46 46 46 46 46 46 46 46 46 45 45 45 45 45 45 44 44 44 44 43 42 42 41 41 41 41 40
41 41 41 41 41 41 41 42 43 44 44 45 46 46 46 46 46 46 45 45 46 46 46 46 45 45 45 45 45 45 45 45 44 44 43 44 44 43 43 42 41 41 41 41
39 39 40 40 40 40 40 40 41 42 43 44 45 45 45 45 45 46 46 45 45 45 45 46 46 46 46 45 45 44 44 44 43 43 43 43 42 42 42 41 41 40 40 41
38 38 39 39 40 40 40 40 41 41 42 42 43 43 43 44 44 44 44 44 44 44 44 44 44 45 46 46 45 44 44 44 43 43 43 43 42 42 41 41 41 41 41 40
38 37 38 39 39 39 39 39 39 40 39 39 40 41 41 41 42 42 43 43 43 43 43 43 43 43 43 44 44 44 44 44 43 43 42 41 41 41 41 41 40 40 40 40
38 37 37 37 38 38 38 38 37 37 38 37 38 39 40 39 40 41 41 41 42 42 42 42 42 42 42 42 42 43 43 43 42 41 41 41 41 40 40 39 39 40 40 40

GEFSNGP_500_meanwind_120.txt.gz
Wind_Speed
8 9 11 11 11 11 12 12 13 12 14 15 15 16 16 16 16 16 15 15 15 14 14 14 13 13 12 12 12 13 13 14 14 15 15 16 17 17 17 18 18 17 17 16
10 11 12 13 13 12 13 14 14 15 15 15 16 17 17 17 16 17 17 16 16 15 15 15 14 14 14 13 13 13 13 14 14 15 15 16 16 16 16 17 17 17 16 16
11 13 14 13 13 14 15 15 16 16 15 15 16 17 17 17 17 17 18 17 17 17 16 16 16 15 15 15 14 14 14 14 15 15 15 15 15 16 16 16 16 17 16 16
13 14 15 15 16 16 17 17 17 17 17 17 17 17 17 17 17 17 18 18 18 18 18 18 17 17 16 16 16 15 15 15 15 15 15 16 16 15 16 16 16 16 16 16
16 16 17 16 17 17 18 18 19 19 18 18 18 19 18 18 18 18 18 19 19 19 19 19 19 18 18 17 17 17 16 16 16 16 16 16 16 16 16 16 16 16 16 16
18 18 19 18 19 19 20 21 20 20 20 20 20 20 20 19 19 19 20 20 20 20 20 20 20 20 20 19 19 18 18 18 17 17 17 17 16 16 16 16 16 16 16 16
20 21 21 21 21 21 23 23 21 22 22 22 22 23 22 21 21 21 21 21 22 22 22 22 22 22 22 21 21 20 20 19 19 19 18 18 17 17 17 17 17 17 17 17
23 24 24 24 24 24 25 25 25 25 25 25 25 25 24 24 24 24 23 23 23 23 24 24 24 24 23 23 22 22 21 21 21 20 19 19 19 18 18 18 18 18 18 17
27 28 28 28 28 28 29 29 29 29 28 27 27 27 27 26 26 26 26 25 25 25 25 25 25 26 25 25 25 24 23 23 22 22 21 21 20 20 20 19 19 19 19 19
31 31 31 32 33 33 33 32 32 32 31 30 30 29 29 29 29 28 28 28 27 27 27 27 27 27 27 27 27 26 25 25 24 24 23 23 22 22 22 21 21 21 20 20
35 35 36 35 35 35 36 36 36 35 34 34 33 32 32 32 31 31 31 30 30 30 29 29 29 29 29 29 28 28 28 27 26 26 25 25 24 24 24 23 23 22 22 22
38 38 40 40 39 39 39 39 38 37 37 36 36 35 35 34 34 34 34 33 32 32 32 31 31 31 31 31 30 30 30 29 29 28 27 27 26 26 25 25 24 24 24 24
42 41 42 43 43 43 43 42 41 41 40 40 40 39 38 37 36 36 36 35 34 34 34 33 33 33 33 33 33 32 32 32 31 30 29 28 28 27 27 26 26 26 26 26
44 44 45 45 45 46 46 45 45 44 44 43 42 42 41 40 40 39 38 37 37 36 36 36 35 34 34 34 34 34 34 33 33 32 32 31 30 30 29 29 28 28 28 28
47 47 47 47 47 48 48 48 47 47 47 46 45 45 44 43 43 42 42 41 40 40 39 38 38 37 37 37 36 36 36 35 35 34 34 34 33 32 31 31 30 30 30 30
49 50 50 50 50 50 50 50 50 49 49 48 48 48 47 46 45 45 44 43 43 42 41 41 40 39 39 39 39 38 38 37 37 37 36 36 35 35 34 33 33 32 32 32
51 51 51 51 51 52 52 51 51 50 50 50 49 49 48 48 47 47 46 46 45 44 44 43 42 41 41 41 40 40 40 39 39 39 39 38 37 37 36 36 35 35 34 34
52 52 52 52 52 52 52 52 52 51 50 50 49 48 48 48 48 48 47 47 46 45 45 45 44 43 43 43 42 42 42 41 41 41 40 40 39 39 39 38 38 37 37 36
52 52 52 52 52 52 52 52 52 51 50 49 49 48 48 48 47 47 47 47 47 46 45 45 45 45 44 44 43 43 43 43 43 42 42 42 42 41 41 40 40 39 39 39
52 52 52 51 51 51 51 51 50 50 49 49 49 48 48 47 47 47 47 47 46 46 45 45 46 46 45 45 45 45 44 44 45 44 44 44 43 42 42 42 41 41 41 40
51 51 50 49 48 47 47 47 47 48 48 48 48 48 48 47 47 47 47 46 46 45 45 45 46 45 45 45 45 46 46 46 46 46 46 45 44 44 43 43 43 43 42 42
49 48 47 46 45 44 44 44 45 45 46 46 46 47 47 47 46 47 47 46 46 45 45 45 45 46 46 46 47 47 47 46 46 46 47 46 46 45 44 44 44 43 43 43
47 46 45 43 43 43 42 43 43 44 44 45 45 45 46 45 45 45 45 44 44 44 45 45 45 45 46 46 46 46 46 47 47 47 46 46 46 46 45 44 44 44 44 43
46 44 43 42 42 42 41 42 42 42 43 43 44 44 44 44 44 44 44 44 43 43 44 45 45 45 45 46 45 44 45 45 45 46 46 46 46 45 45 44 44 44 44 43
44 43 42 41 41 40 40 40 41 41 42 42 42 42 43 43 43 43 43 44 44 44 43 43 43 43 43 44 44 43 43 43 43 44 44 44 44 44 44 44 43 43 42 42
43 42 41 41 40 40 40 40 40 40 40 40 40 40 40 41 42 42 43 43 44 43 43 42 42 42 42 42 42 42 42 42 41 42 42 42 42 43 42 42 42 42 41 41
42 41 40 40 40 40 39 40 39 39 39 39 39 39 39 39 40 40 41 42 42 42 42 41 41 41 41 40 40 41 41 40 40 41 41 41 41 41 41 41 41 42 42 42

GEFSNGP_500_meanwind_126.txt.gz
Wind_Speed
3 3 3 4 5 6 7 8 9 9 10 10 11 11 11 11 11 12 12 12 13 13 13 13 13 13 13 13 13 13 12 12 12 12 12 12 12 12 13 13 13 14 14 14
5 6 6 7 8 8 9 10 10 10 10 11 12 13 12 12 13 13 13 13 14 14 15 15 15 14 14 14 14 14 13 13 13 13 13 12 12 12 12 12 12 13 13 13
7 8 9 9 9 10 11 11 12 12 12 12 13 14 14 14 14 14 14 14 15 16 16 16 16 16 16 15 15 15 15 15 14 14 14 13 13 13 12 12 12 12 13 12
10 10 11 10 11 12 13 14 14 14 14 14 14 15 15 15 15 15 15 15 16 16 17 17 17 17 17 17 17 17 16 16 16 15 15 15 14 14 13 13 12 12 12 12
12 12 11 12 13 14 15 16 16 16 16 16 16 16 16 17 17 17 17 17 17 17 17 18 18 19 19 19 18 18 18 17 17 17 17 16 15 15 14 14 13 13 13 12
15 16 15 15 15 16 17 17 17 18 18 19 19 19 19 19 19 19 19 19 19 19 19 19 19 20 20 20 20 20 20 19 19 19 19 18 17 16 16 15 15 14 14 13
18 18 18 18 18 19 19 20 20 20 21 21 21 22 22 21 21 21 21 21 22 22 22 22 22 22 22 22 22 22 22 22 21 21 21 20 19 18 18 17 16 16 15 15
21 22 22 22 22 22 23 23 23 23 24 24 24 24 24 24 24 24 24 24 25 25 24 24 25 24 24 24 24 25 25 24 24 23 23 22 21 21 20 19 19 18 17 16
24 24 25 25 26 26 27 27 27 27 27 27 27 27 27 27 27 27 27 27 28 28 27 27 27 27 26 26 26 27 26 26 26 26 25 25 24 23 22 22 21 20 20 19
27 27 28 29 29 30 31 31 31 31 31 31 31 31 31 31 31 31 31 31 31 31 30 30 29 29 29 29 29 29 29 28 28 28 27 27 26 25 25 24 23 23 22 21
30 31 31 32 33 33 34 35 35 35 36 36 36 36 35 35 35 35 35 35 35 34 33 33 32 32 32 31 31 31 31 31 31 30 30 29 29 28 27 27 26 25 24 24
34 34 35 35 36 37 38 38 39 39 39 39 40 40 39 39 38 39 39 38 38 37 37 36 36 35 35 34 34 34 34 34 33 33 32 32 31 30 30 29 28 27 27 26
38 39 40 40 40 41 41 42 43 44 44 43 43 43 43 43 42 42 42 42 41 41 40 39 39 38 38 37 36 36 36 36 35 35 34 34 33 32 32 31 30 30 29 29
42 43 44 44 44 45 45 45 46 47 47 48 47 47 46 46 46 46 45 45 45 44 43 42 42 41 41 40 39 38 38 38 38 37 37 36 35 35 34 33 33 32 32 31
45 46 47 47 48 48 48 48 49 49 49 49 49 49 48 48 48 48 48 48 48 47 45 44 44 43 43 42 42 41 41 40 40 40 39 39 38 37 36 36 35 34 34 34
47 47 48 48 49 49 49 49 49 50 50 50 50 50 50 49 49 49 49 49 49 48 47 46 45 45 45 44 43 42 42 42 42 42 42 41 40 39 38 38 37 36 36 35
48 48 48 49 49 49 49 49 49 49 49 50 50 50 50 50 50 49 49 49 48 48 48 47 46 46 46 45 45 44 43 43 43 43 43 42 42 41 40 39 38 38 37 37
49 49 49 50 50 50 50 50 50 49 49 50 50 50 50 50 49 48 48 48 48 47 47 47 47 47 46 46 45 45 45 44 44 44 44 44 43 42 42 41 40 39 39 38
49 50 50 51 51 51 51 51 50 50 50 50 49 49 49 49 48 47 47 47 47 46 46 46 46 46 46 45 45 45 45 45 45 45 45 45 45 44 43 42 41 41 40 40
51 51 51 51 52 51 51 51 51 51 51 50 50 49 48 48 47 46 45 45 45 45 45 45 45 45 45 44 45 45 45 45 45 45 45 45 45 44 43 43 43 43 42 41
51 51 52 52 52 52 51 51 51 50 49 49 48 47 46 46 46 45 44 44 44 44 44 43 44 44 44 43 43 43 43 44 44 45 45 45 45 45 44 43 43 43 43 42
52 53 53 53 53 52 51 51 50 49 49 48 47 46 45 44 45 44 44 43 43 43 43 43 43 42 42 42 42 42 42 43 44 44 45 45 45 44 44 44 44 44 44 44
53 52 52 51 51 50 50 49 49 48 47 47 46 45 44 43 43 43 43 43 43 43 43 42 42 42 42 42 42 42 42 42 43 44 44 44 44 44 44 44 43 43 43 43
50 50 49 49 49 49 47 46 45 45 45 44 43 42 42 42 41 42 42 42 43 43 43 43 42 42 42 42 42 41 41 41 41 42 42 42 42 43 43 43 42 42 42 42
47 47 47 47 47 46 45 45 44 44 43 42 41 41 41 40 40 40 41 41 41 41 42 42 42 41 42 42 42 41 41 40 40 41 41 41 41 40 40 41 41 42 41 41
46 46 45 45 45 45 44 44 43 43 42 41 40 40 39 39 39 39 39 39 39 39 40 41 40 41 41 41 41 40 39 39 39 39 40 40 39 38 38 39 40 40 40 41
46 46 45 45 44 44 43 42 41 41 40 39 39 39 38 38 37 37 37 37 37 37 37 38 38 39 39 39 39 38 38 37 37 37 37 37 38 38 38 38 39 39 40 40

GEFSNGP_500_meanwind_132.txt.gz
Wind_Speed
3 4 4 4 5 5 6 6 6 6 6 7 8 9 9 10 10 11 11 11 12 13 13 13 14 14 15 15 15 16 15 15 15 15 15 15 15 14 14 13 13 13 13 13
4 5 6 6 6 7 7 8 8 8 8 9 10 11 11 11 12 12 13 13 13 14 15 15 15 15 16 16 17 17 17 17 17 16 16 16 16 15 15 14 14 14 14 13
6 7 8 8 8 9 10 10 10 10 11 11 12 12 13 14 14 15 15 15 15 16 16 17 17 17 17 17 18 18 18 18 18 18 18 18 17 17 16 15 15 15 14 14
9 10 11 10 11 12 12 13 13 13 13 14 14 15 15 16 16 17 17 17 17 18 18 18 18 19 19 19 19 19 19 19 19 19 19 19 19 18 18 17 16 16 16 15
11 12 13 13 13 14 14 15 15 16 16 17 17 18 18 19 19 19 20 20 19 20 21 21 21 21 21 20 20 20 20 21 21 21 21 20 20 20 19 19 18 18 17 17
14 15 15 14 15 16 17 17 17 18 19 20 20 20 21 21 22 22 23 23 23 23 23 24 24 24 24 23 23 23 23 23 23 23 23 23 22 22 22 21 20 20 19 18
17 17 17 17 17 18 19 19 20 21 21 22 23 24 24 24 25 25 26 26 27 27 27 27 27 27 27 26 26 26 26 26 26 26 25 25 25 24 24 23 23 22 22 21
19 20 20 20 20 21 22 23 23 23 24 25 26 26 27 27 27 28 28 29 29 30 30 30 30 30 30 30 30 29 29 28 28 28 28 28 28 27 26 26 25 24 24 23
21 22 23 23 23 24 24 25 25 26 27 28 29 29 30 30 30 31 31 32 32 33 33 33 33 33 33 33 33 33 32 32 31 31 30 30 30 30 29 28 28 27 26 25
24 25 26 26 27 27 28 29 29 30 31 31 32 33 34 34 35 35 36 36 36 36 36 36 36 37 37 37 37 36 36 36 35 34 33 33 33 33 32 31 30 30 29 28
28 29 30 30 31 31 32 33 34 35 35 36 37 38 39 39 39 40 40 41 41 41 41 41 41 40 41 41 40 39 39 39 39 38 37 36 35 35 35 34 33 32 32 31
31 32 33 33 34 35 36 37 39 40 40 41 42 42 43 43 44 44 44 45 45 45 45 45 45 45 44 44 44 43 42 41 41 40 39 38 38 37 36 36 36 35 35 34
36 36 37 37 38 39 40 41 42 43 44 44 45 46 47 47 47 48 48 49 49 49 49 49 48 48 48 48 47 46 45 44 43 42 42 40 40 39 38 38 38 38 37 36
39 40 40 41 42 42 43 44 45 46 47 47 48 49 49 50 50 50 50 50 51 51 51 50 50 50 50 49 48 48 47 47 45 44 44 43 42 42 41 41 40 40 39 39
42 43 44 45 46 46 47 47 48 48 49 49 50 50 51 51 52 52 52 52 52 51 51 51 51 50 50 50 49 49 49 49 48 47 46 45 45 44 44 43 43 42 42 41
45 46 47 48 48 49 50 50 50 51 51 51 51 52 52 52 52 52 52 52 52 52 52 51 51 50 50 50 50 50 50 50 49 48 48 47 47 46 46 45 45 44 43 42
48 49 49 50 50 51 51 52 52 52 52 52 53 53 53 53 53 53 53 54 54 53 53 52 51 51 50 50 50 50 50 50 50 49 49 48 48 47 47 46 46 45 45 44
50 51 51 52 52 52 52 53 53 54 54 54 55 55 55 55 55 55 55 55 55 54 53 52 52 51 51 51 50 50 49 49 49 49 49 48 48 48 48 48 47 47 46 45
51 52 52 52 53 54 54 55 55 55 56 56 57 57 56 56 56 56 56 55 55 54 53 52 52 51 50 50 49 49 48 48 48 48 48 48 48 48 48 48 48 47 47 46
52 52 53 53 54 54 55 55 56 56 56 57 57 56 56 56 55 55 55 55 54 54 53 52 51 50 49 49 49 48 48 48 48 47 47 47 47 47 47 47 48 47 47 47
53 54 54 54 55 55 55 56 56 56 56 56 56 56 55 55 54 54 54 54 53 52 52 51 50 49 48 47 47 47 47 48 48 47 46 47 46 45 45 46 46 46 46 46
54 54 55 55 55 55 55 55 55 55 55 55 55 55 55 54 54 53 52 52 50 50 49 49 48 47 46 46 45 45 46 47 47 47 46 46 45 44 44 45 45 45 45 45
54 55 55 55 55 55 55 54 54 54 54 53 53 53 52 52 51 51 49 49 49 48 48 47 47 47 46 45 44 44 44 45 45 45 45 45 44 44 43 44 43 44 45 45
56 56 56 55 55 55 54 54 53 54 53 53 52 52 52 51 50 50 49 48 48 48 47 46 45 45 45 45 44 43 43 43 44 44 45 45 44 43 43 42 42 42 42 43
57 56 56 55 55 54 54 53 53 52 51 51 50 51 51 50 49 48 48 47 46 46 45 45 44 44 44 43 43 43 42 42 42 42 41 42 42 42 41 42 41 40 40 41
54 54 53 53 53 53 52 52 51 50 50 49 48 47 47 46 46 45 44 43 43 43 42 41 41 41 41 40 40 40 40 41 41 41 40 40 40 40 40 39 40 39 39 40
52 52 51 51 51 50 50 49 49 48 47 46 45 45 45 44 43 42 41 41 40 39 39 38 38 38 38 37 37 36 36 37 37 37 37 37 38 38 38 38 39 38 38 39

GEFSNGP_500_meanwind_138.txt.gz
Wind_Speed
5 6 5 5 5 5 5 5 5 6 7 7 7 7 8 8 8 9 9 10 11 12 12 13 13 14 14 14 15 15 15 16 16 17 17 17 17 17 16 16 16 16 15 14
5 5 5 5 5 5 6 6 6 7 8 8 9 9 9 10 10 10 11 12 13 13 14 14 15 15 15 16 16 16 17 17 18 18 18 18 18 18 18 17 17 17 16 15
6 6 6 5 6 6 7 7 8 9 9 10 11 11 11 11 12 13 13 14 14 15 15 16 17 17 17 17 18 18 19 19 19 19 19 19 19 19 19 19 18 18 18 17
7 7 7 7 7 8 9 9 10 11 11 12 12 13 13 14 14 15 16 16 17 17 18 19 19 20 20 20 20 20 21 21 21 21 21 21 21 21 21 20 20 19 19 19
9 9 10 10 10 10 11 11 11 12 13 14 14 15 16 16 17 18 19 19 19 20 21 21 22 22 23 23 23 23 23 23 23 23 23 23 23 23 23 23 22 22 21 21
11 12 12 12 12 13 13 13 13 14 14 15 17 18 18 19 20 20 21 22 22 23 24 24 25 25 26 26 26 26 26 26 26 26 26 26 25 25 26 25 25 24 24 23
13 14 14 14 14 15 15 15 15 16 16 17 19 20 21 22 23 24 24 24 25 26 27 27 28 28 28 29 29 29 29 29 29 29 29 29 29 28 28 28 28 27 27 26
16 16 16 16 17 17 17 17 18 18 19 20 21 22 23 24 25 26 27 27 28 29 30 30 31 31 32 32 32 33 33 33 33 33 33 33 32 32 31 31 31 31 30 30
18 18 19 19 19 20 20 21 21 22 23 24 25 25 26 27 28 29 30 31 32 33 34 34 35 35 36 36 36 36 36 36 36 36 36 36 36 35 35 34 34 33 33 32
21 21 21 22 22 23 24 24 25 25 26 27 28 29 30 31 32 33 34 35 36 37 38 39 39 39 39 39 39 39 40 40 40 40 39 39 39 38 38 37 36 36 35 34
23 24 24 25 25 26 27 28 28 29 30 31 32 33 34 35 36 37 38 39 40 41 42 43 43 43 43 43 43 43 43 43 43 43 43 42 41 41 40 39 39 38 38 38
26 26 27 28 29 29 30 31 32 33 33 34 35 36 38 39 40 41 42 43 44 45 46 46 46 46 46 46 46 46 46 46 46 46 45 45 44 44 43 42 42 42 41 41
29 29 30 31 32 32 33 34 35 36 36 37 39 40 41 42 43 45 46 46 47 48 48 48 48 48 49 48 48 47 48 48 48 48 47 47 46 46 45 44 44 43 43 43
31 32 33 34 34 35 36 37 38 39 40 41 42 43 44 45 46 47 48 49 49 49 49 50 50 50 50 50 49 49 49 49 49 49 48 48 47 47 46 46 45 45 45 45
34 35 36 36 37 38 39 40 41 41 42 44 45 46 47 48 49 49 50 50 50 50 51 51 51 51 51 51 51 51 51 51 51 51 50 49 48 48 48 48 48 47 47 47
36 37 38 39 40 41 42 42 43 44 45 47 48 49 50 51 51 51 51 51 51 51 51 52 51 51 52 52 53 53 53 52 52 51 50 50 49 49 49 49 49 49 48 48
39 40 41 42 43 44 44 45 46 48 49 50 51 51 52 52 52 52 52 52 52 52 52 52 52 52 53 53 54 54 53 52 51 51 50 50 50 50 51 50 49 48 48 48
42 43 44 45 45 46 47 48 49 50 51 51 52 52 53 53 53 53 53 53 53 53 53 53 53 53 53 54 54 54 53 53 52 51 51 50 50 50 50 50 50 49 48 47
44 45 46 47 47 48 49 50 50 51 52 53 53 53 53 53 54 54 54 53 53 53 53 53 54 54 54 54 54 53 53 53 53 52 51 50 49 49 49 49 49 48 48 48
46 47 48 48 49 50 50 51 51 52 52 53 53 53 53 53 54 54 54 54 54 55 54 54 54 54 53 53 53 53 52 52 51 51 50 49 48 47 47 48 48 47 48 48
47 48 48 49 49 50 50 51 51 51 52 52 53 53 54 54 54 54 54 54 54 55 54 54 54 53 53 52 51 51 50 49 49 48 48 47 46 45 46 46 47 47 47 47
47 48 48 49 49 50 50 51 51 51 52 52 53 54 55 54 54 54 54 54 54 53 53 52 52 52 52 51 50 49 48 48 47 47 47 46 46 45 45 45 46 46 47 47
47 48 48 48 49 49 49 50 51 51 52 53 53 54 54 53 53 53 52 52 52 52 52 51 51 51 50 49 49 48 47 47 46 46 45 45 45 45 44 44 45 45 45 45
48 47 48 48 49 49 49 50 51 52 53 53 53 52 52 51 51 51 51 50 50 50 50 50 49 48 48 47 47 46 45 45 44 44 43 43 43 43 43 43 43 42 42 42
48 49 50 50 50 51 51 52 52 52 52 52 51 50 50 50 50 49 49 48 48 48 48 47 47 46 46 46 45 44 43 42 41 41 41 41 41 41 41 42 42 41 40 40
49 50 50 51 51 51 52 52 52 51 51 50 49 49 48 49 49 48 48 47 46 46 46 45 45 45 45 44 43 42 41 40 39 39 39 39 40 40 39 39 40 39 39 38
49 49 50 50 50 51 51 51 50 49 49 48 47 47 47 47 48 47 47 46 45 44 43 43 42 42 42 41 40 39 39 38 38 37 36 36 37 36 36 36 36 35 36 36

GEFSNGP_500_meanwind_144.txt.gz
Wind_Speed
7 7 7 8 9 9 10 9 9 8 8 7 7 8 8 8 8 8 8 9 9 10 10 11 12 13 13 14 14 15 15 16 16 17 17 17 17 17 17 17 17 17 17 17
7 8 8 8 8 9 10 10 10 9 10 9 8 9 10 10 10 10 11 11 11 12 13 13 14 15 16 16 16 17 17 17 17 18 19 19 19 19 19 19 19 19 19 19
8 8 8 8 8 9 9 10 11 11 11 10 11 12 12 12 12 12 13 13 14 14 15 15 16 17 17 17 18 19 20 20 21 20 21 21 21 21 21 21 21 21 20 20
9 9 10 9 9 9 10 11 11 12 12 12 13 14 14 13 13 14 15 15 16 16 17 18 19 19 20 20 20 21 22 23 23 23 23 23 23 24 24 23 23 23 23 22
11 11 12 11 11 11 11 12 12 13 13 14 14 15 15 15 15 16 17 17 18 19 20 20 21 22 22 23 23 24 24 25 25 25 25 26 26 26 26 26 26 25 25 25
13 14 14 14 13 13 14 14 14 14 15 15 16 17 16 16 17 18 19 19 20 22 22 23 24 24 25 25 26 27 28 28 27 28 28 28 29 29 29 29 29 29 28 27
16 17 18 16 15 16 17 16 16 17 17 18 18 19 19 19 20 21 21 22 23 24 25 26 27 27 28 28 29 30 31 31 31 31 32 32 32 32 32 32 32 32 32 31
18 20 20 19 19 19 18 19 19 19 19 20 21 21 22 23 24 24 25 26 26 27 28 29 30 30 31 32 33 34 34 35 35 35 35 35 35 35 34 35 35 34 34 34
22 22 22 22 22 21 21 22 22 22 22 23 23 24 25 26 27 28 28 29 30 30 31 32 33 34 35 35 36 37 38 38 38 38 38 38 38 38 37 37 37 37 37 37
23 23 24 24 24 24 24 24 24 25 25 25 26 27 28 29 30 30 31 32 33 34 35 36 37 38 39 39 40 41 41 41 41 41 41 41 41 41 41 41 41 40 40 39
26 26 25 26 26 26 26 26 26 27 27 28 29 30 31 32 33 33 34 35 36 38 39 40 41 41 43 43 44 44 44 44 44 44 44 44 44 44 44 44 44 44 43 43
28 27 28 28 28 28 28 29 29 29 30 30 32 33 34 35 35 36 37 38 39 41 42 43 44 45 46 47 48 47 47 47 47 47 46 47 47 47 47 47 47 47 46 46
29 29 30 30 30 30 30 30 31 32 32 33 34 35 36 37 38 39 40 41 42 44 45 46 47 48 49 50 50 50 50 50 50 49 49 49 50 49 49 49 49 49 49 48
30 31 32 32 31 32 32 32 32 33 34 35 36 37 38 40 41 42 43 44 45 47 48 49 50 50 51 51 51 51 52 52 52 52 51 51 51 51 51 51 50 50 50 50
32 33 34 34 34 34 35 35 36 36 37 38 39 40 41 43 44 45 46 47 48 49 50 50 51 51 51 51 52 52 52 52 52 53 52 52 52 53 53 52 52 51 50 50
35 35 36 36 36 37 38 38 39 40 41 41 42 43 44 46 47 47 48 49 50 51 51 52 52 53 53 53 53 53 53 53 53 54 53 53 54 54 53 53 53 52 52 51
36 36 37 38 39 40 41 41 42 42 43 44 45 46 47 48 49 50 50 51 51 52 53 53 54 54 54 55 55 55 54 54 54 54 54 55 55 55 55 55 54 53 52 52
37 38 39 40 41 42 42 43 44 45 46 47 48 49 49 50 51 51 52 52 53 54 54 55 56 56 56 56 56 56 55 55 56 56 56 56 56 56 56 56 55 54 53 52
40 41 41 42 43 43 44 45 46 47 48 49 49 50 51 51 52 52 53 54 54 55 55 56 56 56 56 56 56 56 56 57 56 56 56 56 56 55 55 55 54 53 53 52
41 42 42 43 44 45 46 47 48 49 49 50 51 52 52 53 53 53 54 54 55 56 56 56 56 56 56 56 56 56 56 56 56 55 55 54 54 53 53 52 51 51 50 49
43 43 44 45 46 47 48 48 49 50 50 51 51 52 52 53 53 54 54 55 55 55 56 56 56 56 56 56 55 55 54 54 54 54 53 52 51 50 50 49 49 48 47 46
45 46 46 47 47 48 49 49 49 50 50 51 52 52 53 53 54 54 54 55 55 56 56 56 55 55 55 54 54 53 53 53 52 52 51 51 49 48 48 47 46 45 45 44
46 47 48 48 49 49 49 49 50 50 51 52 52 53 53 54 54 54 54 54 55 56 56 55 54 53 53 53 52 52 51 51 51 50 50 49 48 47 46 45 44 43 43 43
47 48 48 49 49 49 49 50 51 51 51 52 52 53 54 54 54 54 55 55 55 55 54 53 52 52 51 51 50 50 50 49 48 48 47 46 44 44 43 43 42 41 41 41
48 48 49 49 49 50 50 50 50 51 51 52 52 53 53 54 54 54 54 54 53 53 52 51 50 50 50 49 49 48 48 47 45 44 43 42 41 41 40 40 39 39 39 39
48 48 48 48 49 49 49 49 50 50 51 51 51 52 52 53 53 52 52 51 50 50 49 48 48 49 49 48 47 46 46 44 43 42 41 41 40 39 38 37 37 37 38 38
47 47 47 47 47 47 48 48 49 49 49 50 50 49 49 49 49 49 48 48 48 48 48 48 48 48 47 46 44 44 43 42 41 40 39 38 38 38 37 36 36 35 35 35

GEFSNGP_500_meanwind_150.txt.gz
Wind_Speed
10 11 11 10 10 10 8 7 6 6 5 6 5 5 5 5 5 6 7 8 9 9 9 9 10 10 10 10 11 11 12 13 13 14 14 15 15 15 16 16 16 17 17 17
10 10 10 10 10 9 9 9 8 8 7 7 6 6 6 6 6 7 8 9 9 10 10 11 12 12 12 13 13 14 15 15 15 15 16 16 17 17 17 17 18 19 19 19
11 11 11 10 10 10 10 10 10 9 8 7 7 7 7 8 8 9 10 10 11 12 12 13 14 14 15 15 16 17 17 18 18 18 18 18 19 20 20 20 20 20 21 22
13 12 12 11 11 11 11 11 10 9 9 8 8 9 9 9 10 10 11 12 13 14 14 15 16 16 17 18 19 19 20 20 21 21 21 21 22 22 23 23 24 24 24 25
14 15 14 13 13 12 12 11 11 10 10 10 10 11 11 11 12 12 13 14 15 16 17 17 18 19 20 20 21 22 22 23 23 24 24 24 25 26 26 26 27 28 28 28
16 16 15 13 13 13 13 12 12 12 12 12 12 13 13 14 14 15 16 17 17 18 19 20 21 21 22 23 23 24 25 25 26 27 27 28 28 29 29 29 30 30 31 31
16 16 15 14 14 14 13 12 13 14 14 14 15 15 15 16 17 18 19 19 20 21 22 23 23 24 25 26 26 27 28 29 29 30 31 31 32 32 32 32 33 33 33 33
18 18 16 15 15 15 14 15 15 15 16 17 17 18 18 19 20 21 22 22 23 24 25 26 26 27 28 29 30 30 31 32 33 34 34 34 35 35 35 36 35 35 35 35
20 19 17 17 17 17 17 17 17 18 18 19 20 21 21 22 23 24 25 26 26 27 28 28 29 30 31 32 33 33 34 35 36 37 37 38 38 38 38 39 39 38 38 38
21 20 19 19 19 20 20 20 20 21 21 22 23 24 25 25 26 27 28 28 29 30 30 31 32 33 34 35 36 36 38 39 39 40 40 41 41 41 42 42 42 42 42 41
22 21 20 21 21 22 22 23 23 24 24 25 26 27 27 28 28 29 30 31 32 33 33 34 35 36 37 38 39 40 41 42 43 43 43 43 44 45 45 45 45 45 45 45
23 23 23 23 24 24 25 25 26 26 27 27 28 29 30 31 32 32 33 33 35 36 36 37 38 39 40 41 42 43 44 45 45 45 45 46 46 47 47 47 47 48 48 49
24 25 25 25 26 27 28 28 28 28 29 29 30 31 32 33 33 34 35 36 37 38 39 40 41 42 43 43 44 45 45 46 46 47 47 48 48 48 48 48 49 50 51 52
26 26 26 27 28 29 29 30 30 30 31 31 32 33 33 34 35 36 37 39 39 40 41 42 43 44 44 45 46 46 46 47 48 49 50 50 51 51 51 51 51 52 53 54
28 28 29 29 30 30 30 31 31 32 32 33 34 35 36 37 38 39 40 41 42 43 43 44 45 46 46 47 48 48 49 49 50 51 52 52 53 53 53 54 54 55 55 55
29 29 30 30 30 31 31 32 33 34 34 35 36 38 39 40 41 42 43 43 44 45 46 46 47 48 49 50 50 51 52 53 53 54 54 54 54 55 55 56 56 56 56 56
30 31 31 32 32 33 33 34 35 36 36 37 39 40 41 41 42 43 44 45 46 47 48 49 50 51 52 52 53 53 54 55 56 56 56 56 56 56 57 57 57 57 57 57
33 33 33 34 34 35 36 36 37 38 39 40 41 42 43 45 46 46 47 48 48 49 50 52 52 53 53 54 55 56 56 57 57 58 58 58 58 58 58 59 58 58 57 56
36 35 36 36 37 38 38 39 40 41 42 43 44 45 46 47 47 48 48 49 50 51 52 53 54 54 55 56 56 57 57 58 58 58 58 59 59 59 58 58 57 57 56 55
37 37 38 38 39 40 40 41 42 43 44 45 46 47 47 47 48 48 49 50 51 53 53 54 55 55 56 57 57 58 58 58 58 58 58 58 58 57 57 56 55 54 54 54
39 39 40 40 41 41 42 43 44 45 45 46 47 47 47 48 49 50 51 52 52 53 54 54 55 55 56 57 57 58 58 58 58 58 57 57 56 55 55 54 54 53 52 51
39 40 40 41 42 42 43 43 44 45 45 46 47 47 48 49 50 51 51 52 52 53 53 54 54 55 56 56 57 58 58 58 57 57 56 55 55 54 53 52 51 50 49 48
39 39 40 41 41 42 43 43 44 45 46 46 47 47 48 49 50 50 51 51 52 52 53 54 55 55 56 57 57 57 57 56 55 55 54 53 52 51 50 49 49 47 46 45
39 40 41 41 41 42 43 44 44 45 45 46 47 48 49 49 49 50 51 51 52 53 53 54 55 55 56 56 56 56 55 54 53 53 52 51 50 49 48 48 47 46 45 44
41 41 41 42 42 42 43 44 45 45 45 46 47 47 48 48 49 49 50 51 51 52 52 53 54 54 55 55 54 53 53 52 51 51 50 49 48 47 46 46 45 45 44 44
41 41 41 41 42 42 43 44 45 45 46 46 46 47 47 48 49 49 50 50 50 51 52 52 52 52 52 52 51 51 50 50 49 48 47 46 45 45 44 44 44 43 43 42
41 41 42 42 42 43 44 44 45 45 46 46 46 47 47 48 48 49 49 50 50 51 51 51 51 50 50 49 49 49 49 48 47 46 45 44 44 43 43 42 42 42 41 41

GEFSNGP_500_meanwind_156.txt.gz
Wind_Speed
10 10 11 10 10 9 9 9 9 9 9 9 9 10 10 10 9 9 9 8 8 8 8 8 8 9 9 10 11 11 12 12 13 14 14 15 15 16 16 17 17 18 18 18
11 11 11 11 11 10 10 10 10 10 10 10 10 10 10 10 10 10 9 9 9 9 9 9 10 10 11 12 13 13 14 14 15 16 16 17 18 18 19 19 20 20 20 21
13 12 12 11 11 11 11 11 11 10 10 12 12 11 11 11 11 11 11 11 11 11 11 12 12 12 13 14 15 16 16 17 18 18 19 20 20 21 21 22 22 23 23 23
14 14 13 11 12 12 12 12 11 11 11 12 12 12 11 11 12 11 11 12 12 13 13 14 14 15 16 17 18 18 19 20 20 21 21 22 23 24 24 25 25 25 26 26
15 15 14 13 13 13 13 12 12 12 12 12 12 12 12 12 12 12 13 13 14 14 15 16 16 17 18 19 20 21 21 22 22 23 23 24 25 26 27 27 28 28 28 29
16 16 15 14 14 14 14 14 14 14 14 14 14 13 13 13 14 14 14 15 15 16 16 17 18 19 20 22 22 23 24 24 25 26 26 27 28 29 30 30 31 31 31 31
18 18 16 15 15 15 15 14 15 16 16 16 15 15 15 15 16 16 17 17 18 18 19 19 20 21 23 24 24 25 26 27 28 29 30 31 31 32 32 33 33 33 33 34
18 18 16 17 17 16 16 16 17 17 17 18 17 17 17 17 18 18 18 19 20 20 21 22 23 24 25 26 26 27 28 30 31 32 33 33 34 34 35 35 35 35 36 36
19 18 17 18 18 18 18 18 18 18 18 19 19 19 19 20 21 21 21 22 22 23 24 25 26 27 28 28 29 30 31 32 33 34 34 35 36 36 37 37 38 38 38 39
21 19 20 20 20 20 21 21 20 20 20 20 21 21 22 22 22 23 24 25 26 26 27 28 29 30 30 31 32 32 33 34 35 35 36 37 38 38 39 40 40 41 41 42
22 22 22 22 22 22 22 22 23 23 23 23 23 23 24 25 25 26 27 28 29 29 30 31 32 33 33 33 34 35 36 37 37 38 39 39 40 41 42 43 44 44 44 45
24 24 25 24 24 24 24 24 25 25 25 25 25 26 27 28 28 29 30 30 31 31 32 33 34 34 35 35 36 37 38 39 39 40 41 42 43 44 45 45 46 46 47 48
25 25 26 26 26 26 26 26 26 26 27 27 28 28 29 29 30 30 31 32 32 33 34 34 35 36 36 37 38 38 40 41 42 43 44 45 46 46 47 47 48 49 50 50
26 26 25 26 26 26 27 27 27 27 27 28 29 29 30 30 31 31 32 32 33 34 35 35 36 37 38 39 40 41 42 43 44 46 47 47 47 48 49 49 50 51 51 52
27 27 27 27 27 27 27 28 28 28 28 29 29 30 31 31 32 33 33 34 35 36 37 38 38 39 40 42 43 43 44 45 46 47 48 49 50 51 51 52 52 53 53 53
30 29 29 29 29 29 29 29 29 30 30 30 31 32 32 33 34 34 35 36 37 38 39 40 40 42 43 44 46 46 47 48 49 49 50 51 52 52 53 53 54 54 55 55
32 32 32 32 31 31 31 31 31 32 32 32 33 34 35 36 36 37 38 39 40 40 41 42 43 45 46 47 48 49 49 50 51 52 52 52 53 54 55 55 56 56 56 56
34 34 34 34 34 34 34 34 34 34 34 35 36 37 37 38 40 41 41 41 42 42 43 45 46 47 48 49 50 51 52 52 53 53 53 54 54 55 56 56 56 56 56 56
35 35 35 35 35 35 35 35 36 36 37 37 38 38 39 40 41 42 42 43 44 45 46 47 48 49 50 50 51 52 53 53 54 54 54 55 55 55 55 56 56 56 56 56
34 35 35 35 36 37 38 38 38 39 39 40 40 41 42 42 43 43 44 45 46 47 48 48 49 50 51 52 52 53 53 54 54 54 55 55 55 55 55 56 56 56 56 55
35 35 36 36 37 38 39 39 40 40 41 42 42 43 43 43 44 45 46 47 48 49 49 50 50 51 52 52 53 53 54 54 54 55 55 55 55 56 56 56 56 56 56 55
36 36 37 37 38 39 39 40 41 42 42 43 44 44 44 45 46 47 48 48 49 50 50 51 51 52 52 52 53 53 54 54 55 55 55 55 56 56 56 56 56 55 54 53
36 36 37 38 39 40 40 41 42 43 44 44 44 44 45 46 46 47 48 48 49 50 50 50 51 51 52 52 52 53 53 53 54 54 54 55 55 55 55 55 54 54 53 52
37 38 38 39 40 40 41 42 43 43 43 43 44 44 45 45 46 47 48 49 49 49 49 50 50 51 51 51 51 52 52 53 53 53 53 54 54 55 55 54 53 52 51 51
38 38 39 39 40 41 42 42 42 42 43 43 44 45 46 47 47 48 48 48 49 49 49 49 49 50 50 50 51 51 51 52 52 52 53 53 53 53 53 52 51 50 50 49
38 38 39 39 40 41 41 42 42 42 43 44 44 45 46 47 47 47 47 47 47 47 47 47 48 49 49 50 50 51 51 51 51 52 52 52 52 51 50 49 49 48 48 47
39 39 39 39 40 40 41 41 41 42 43 43 44 45 45 45 45 45 45 45 45 46 46 47 48 49 49 50 50 51 51 50 51 51 51 51 50 49 49 48 47 47 46 46

GEFSNGP_500_meanwind_162.txt.gz
Wind_Speed
11 11 11 11 10 10 11 11 11 11 11 11 11 11 11 11 12 12 12 11 11 11 10 10 10 11 10 10 11 11 11 12 12 12 12 13 13 14 15 15 15 16 16 17
11 12 12 11 11 11 11 11 11 12 11 12 12 11 11 11 12 11 12 11 11 11 11 11 11 11 11 12 12 13 13 13 14 14 15 15 15 16 17 17 18 18 18 19
11 12 12 12 11 11 11 11 12 12 11 12 12 12 12 12 11 11 11 11 11 11 12 12 12 12 12 13 13 14 15 16 16 17 17 17 18 18 19 19 20 20 21 21
13 14 14 12 13 13 13 12 12 12 12 12 12 13 13 12 12 12 12 12 12 12 13 13 13 14 14 14 15 16 17 18 19 19 19 20 20 21 21 22 22 23 24 24
15 15 14 14 13 13 14 14 13 13 13 13 13 13 13 13 13 13 13 13 13 13 14 14 15 15 16 16 17 18 18 19 20 20 21 22 22 23 24 24 25 25 26 26
16 15 15 14 14 14 14 15 14 13 13 13 13 13 14 14 14 14 14 14 14 14 15 15 16 16 17 18 19 20 20 21 22 23 23 24 25 25 26 27 27 28 28 28
16 16 15 15 15 15 15 14 14 14 14 13 13 13 14 14 15 15 15 15 15 16 16 17 18 18 19 20 20 21 22 23 24 25 25 26 27 28 29 29 30 30 31 31
18 17 16 16 16 16 15 16 15 14 14 14 15 14 15 15 16 16 16 17 17 18 18 19 20 20 21 22 22 23 24 25 26 27 27 28 29 30 31 31 32 33 33 34
19 19 18 18 18 17 16 16 16 16 16 16 16 16 16 16 17 17 18 18 19 20 21 21 22 22 23 24 25 25 26 27 27 28 29 30 31 32 33 34 35 35 36 36
19 19 19 19 18 18 18 17 17 17 17 17 17 17 17 17 18 18 19 20 21 22 23 23 24 25 26 26 27 28 29 29 30 30 31 32 33 34 35 36 37 38 39 40
20 20 20 19 19 19 19 19 18 19 19 18 18 18 19 19 20 20 21 22 23 24 25 26 26 27 28 29 29 30 31 31 32 32 33 34 36 37 38 38 39 40 41 42
21 21 21 21 20 20 20 20 20 20 21 21 21 21 21 21 21 22 23 24 25 26 27 27 28 29 30 31 31 32 33 33 34 34 35 37 38 39 40 41 42 43 43 43
23 23 23 22 22 22 22 21 21 21 22 21 22 22 23 23 23 24 24 26 27 28 28 29 30 31 32 32 33 34 35 35 36 37 38 39 40 41 42 42 43 43 44 45
23 23 24 23 23 23 23 23 23 22 22 22 23 23 23 24 25 26 27 27 28 29 30 31 32 33 34 34 35 36 36 37 38 39 40 41 42 43 44 44 45 45 46 47
24 24 24 24 24 24 25 25 25 24 24 25 25 25 26 26 27 28 29 30 31 32 33 33 34 35 36 37 37 38 38 39 41 42 43 44 44 45 46 46 47 47 48 49
26 26 25 25 25 25 26 26 26 26 26 27 27 27 28 29 30 31 31 32 33 33 34 35 37 37 38 38 39 39 40 42 43 44 45 46 47 47 48 48 49 50 51 52
28 27 27 27 27 27 28 28 28 28 28 29 29 30 30 31 32 33 34 34 35 36 37 38 38 39 40 40 41 42 43 44 45 46 47 48 49 49 50 50 51 52 52 53
28 28 28 28 29 29 30 30 30 31 31 32 32 33 33 34 34 35 35 36 37 38 39 40 40 41 41 42 43 44 45 46 47 48 49 50 50 51 51 52 52 53 54 54
29 29 29 30 30 31 32 32 33 33 33 34 34 35 35 36 36 37 37 38 39 40 41 41 42 43 43 44 45 46 47 48 49 49 50 51 51 52 53 53 54 54 54 54
30 30 31 31 31 32 33 34 34 35 35 35 36 36 37 38 39 39 40 41 41 42 43 43 44 44 45 45 46 47 48 49 49 50 51 51 52 52 53 53 54 54 54 54
31 31 32 32 33 33 34 35 35 36 36 37 37 38 39 40 40 41 41 42 42 43 43 44 44 45 46 47 47 48 48 49 50 50 50 51 52 52 53 53 53 54 54 54
31 31 31 32 33 33 34 35 36 37 37 38 39 40 40 41 41 41 42 42 42 43 44 45 45 45 46 47 47 48 49 49 49 50 50 51 51 52 52 52 52 52 52 53
31 32 32 33 33 34 34 35 36 37 38 38 39 39 39 40 40 41 41 42 42 43 44 44 45 45 46 47 47 48 48 49 49 49 50 50 51 52 51 51 51 51 51 51
32 32 32 33 34 34 35 35 36 37 37 38 38 39 40 40 40 41 41 42 43 43 44 44 45 45 46 46 47 47 48 49 49 50 50 50 50 50 50 50 50 50 50 50
32 33 33 34 34 35 35 36 36 37 38 38 39 39 40 40 40 41 41 42 43 43 44 44 45 46 46 47 47 47 48 49 49 49 49 49 49 49 49 50 50 50 50 49
33 34 34 34 35 35 35 36 37 37 38 39 39 40 40 41 41 41 42 42 43 43 44 45 46 46 46 46 47 47 48 48 48 48 48 49 48 49 49 49 49 49 49 49
34 35 36 36 36 36 36 37 38 39 39 39 40 40 40 40 41 41 42 42 43 43 44 44 44 45 45 46 46 47 47 47 48 48 48 48 48 48 48 48 48 48 49 49

GEFSNGP_500_meanwind_168.txt.gz
Wind_Speed
11 11 11 12 12 12 13 12 13 12 12 12 12 13 12 12 11 11 11 12 12 12 11 11 10 10 10 10 10 11 11 11 11 12 13 14 14 15 15 16 15 16 16 17
12 12 12 12 13 13 13 13 13 14 13 12 12 12 13 12 12 12 13 13 13 12 12 12 11 11 11 11 11 11 12 12 13 14 15 15 16 16 17 17 17 18 19 19
14 13 13 13 13 13 13 14 14 14 13 13 13 12 13 13 12 12 13 14 13 13 13 12 12 12 11 12 12 12 12 13 14 16 16 16 16 17 17 18 19 20 21 21
14 14 14 12 12 13 14 13 13 13 12 13 13 13 13 13 13 13 13 13 14 14 14 14 13 12 12 13 13 14 14 15 16 17 17 18 18 19 19 21 22 22 23 23
15 15 14 14 13 13 14 14 13 13 13 14 14 14 14 14 13 13 14 14 14 14 14 14 13 13 14 14 14 15 16 17 18 19 19 20 20 21 22 23 24 24 25 25
16 16 15 14 14 14 15 15 14 14 14 14 15 16 15 15 14 14 14 15 15 15 15 14 15 15 15 16 16 16 17 18 20 21 21 22 22 23 24 25 26 26 27 27
17 17 16 15 15 15 16 15 15 16 16 15 16 16 16 16 15 15 15 15 15 15 16 16 16 16 17 17 17 18 19 20 21 21 22 23 23 24 25 26 27 28 29 29
18 19 18 17 17 17 17 16 16 16 16 16 16 17 17 16 16 16 17 17 17 17 18 18 17 18 18 19 19 20 20 21 22 22 23 24 25 26 27 28 29 29 31 32
19 20 19 19 19 19 18 17 16 16 16 16 17 17 17 17 17 17 18 18 18 19 19 19 19 20 20 21 21 22 22 23 23 24 25 26 27 28 29 30 31 32 33 34
21 20 20 20 20 20 20 19 18 18 17 17 17 17 17 17 17 17 18 18 18 19 20 20 20 21 21 22 23 24 24 25 26 27 28 29 30 31 32 33 34 35 35 36
22 21 21 21 21 21 21 20 20 19 19 18 18 17 17 18 18 19 19 19 19 20 20 20 21 22 23 24 25 25 26 27 28 29 30 32 32 33 34 35 36 37 38 39
24 23 23 22 21 21 21 21 20 19 19 19 19 19 19 19 19 19 19 19 20 20 20 21 22 23 24 25 26 27 29 30 31 32 33 34 35 36 37 38 39 39 40 41
26 25 24 23 22 22 22 21 21 20 20 20 20 20 20 20 20 20 20 20 20 21 22 23 24 25 26 27 29 30 31 32 34 35 36 37 38 39 39 40 41 42 42 43
27 26 25 25 24 23 23 22 21 21 21 21 21 21 21 21 21 22 22 22 22 23 24 25 26 28 29 31 32 33 34 35 37 38 39 40 40 40 41 41 42 43 44 45
27 26 26 26 25 24 24 23 23 23 23 23 23 23 23 24 24 24 24 25 26 27 28 29 30 31 32 33 35 36 37 38 39 40 41 41 41 42 42 43 44 45 46 47
27 27 27 27 27 26 26 26 25 25 25 25 25 26 26 26 26 27 27 28 29 30 31 32 33 34 36 37 38 39 39 40 41 41 41 42 43 43 44 45 46 47 47 48
29 28 28 29 28 28 27 27 28 28 27 27 27 28 28 28 28 29 30 31 32 33 34 35 36 37 38 39 40 41 41 41 42 42 43 43 44 45 46 47 47 48 48 49
30 30 29 30 30 30 30 30 30 30 30 30 30 30 30 31 31 32 32 34 35 36 37 38 39 40 40 41 41 42 43 43 43 43 44 45 45 46 47 48 48 49 50 50
31 30 30 30 31 31 31 32 32 32 32 32 32 32 33 33 34 34 35 37 37 38 39 39 40 41 41 42 42 42 43 43 44 44 45 45 46 47 48 49 50 50 51 52
31 31 31 31 32 32 32 33 33 33 33 34 34 34 35 36 36 37 38 38 39 39 40 40 41 41 42 42 42 43 43 44 45 45 46 46 47 48 49 49 50 51 52 52
32 32 32 32 32 32 33 33 34 34 34 35 35 36 37 37 38 38 39 39 39 40 40 41 41 42 42 43 43 44 45 45 45 46 47 47 48 49 50 50 51 51 52 52
32 33 33 33 33 33 33 34 34 35 36 36 37 37 38 38 39 39 39 39 39 40 41 41 42 43 43 44 44 45 45 45 46 46 47 47 48 49 49 50 50 51 51 51
33 33 33 33 34 34 35 35 36 36 36 37 37 38 38 38 39 39 39 40 40 41 42 43 43 44 44 44 44 45 45 45 46 47 47 47 48 48 49 49 50 50 50 50
34 34 34 34 35 35 36 36 36 36 37 37 38 38 38 38 38 39 40 41 42 43 43 43 43 44 44 44 43 44 44 45 46 46 47 48 48 49 49 49 49 49 49 49
34 34 34 34 35 35 36 36 37 37 37 37 37 37 38 38 39 40 41 42 42 43 43 43 44 44 44 44 44 45 46 46 47 47 47 48 48 49 49 49 49 49 49 49
34 34 34 35 35 35 36 36 36 36 37 37 37 37 38 39 40 41 41 42 42 43 43 43 43 44 44 45 45 45 46 47 47 47 47 48 49 49 49 49 49 49 49 48
35 34 35 35 35 35 36 36 36 36 36 37 37 38 39 40 41 41 42 42 42 42 43 43 44 44 45 45 45 45 46 47 47 48 48 47 48 48 48 48 47 47 47 47

GEFSNGP_500_meanwind_174.txt.gz
Wind_Speed
10 10 10 10 11 11 11 10 10 9 8 8 9 10 10 10 10 10 11 11 12 12 11 11 11 10 10 10 10 10 10 10 10 10 10 11 11 11 11 12 12 13 14 15
12 12 12 11 11 11 11 11 11 10 9 8 9 10 10 10 10 10 11 11 11 12 12 12 12 12 11 11 10 10 10 11 12 12 12 12 12 12 13 14 14 15 16 17
14 14 14 12 11 11 11 11 12 11 9 9 9 10 10 10 10 10 10 11 12 12 12 12 12 12 12 11 11 11 11 11 11 12 13 13 13 14 14 15 16 17 18 19
15 15 16 13 13 12 12 11 12 10 10 10 10 10 10 11 10 10 11 11 12 12 12 11 11 12 12 12 12 11 11 12 12 13 13 14 14 15 16 17 18 19 20 20
16 16 15 15 14 14 13 12 12 12 11 11 10 10 11 11 11 11 12 12 12 12 12 11 11 11 12 12 12 12 12 13 13 14 14 15 15 16 17 18 19 21 21 22
17 17 16 14 15 15 15 14 12 12 12 12 11 11 11 11 12 12 12 12 12 13 13 13 12 12 12 13 12 13 13 14 14 14 15 16 16 17 18 19 20 21 22 23
18 18 16 15 15 16 16 14 14 13 12 12 12 12 12 12 13 12 13 13 13 14 14 14 14 14 13 13 13 14 15 15 15 15 16 16 17 18 20 21 22 22 23 24
19 19 17 16 16 16 15 15 14 14 13 13 13 13 13 14 13 13 13 14 14 14 14 15 15 14 14 14 15 15 16 16 17 17 18 18 19 20 21 22 23 24 25 26
20 19 17 17 17 15 15 14 14 14 14 13 13 14 14 15 15 15 15 15 15 15 15 16 15 15 16 16 16 17 17 18 19 19 20 21 21 22 23 24 25 26 28 29
20 19 18 17 17 16 15 15 15 15 15 15 15 15 15 15 16 15 15 15 16 16 16 16 16 17 16 17 17 18 19 20 20 21 21 22 23 25 26 27 29 30 31 32
21 20 20 19 18 18 17 16 16 16 16 16 16 16 16 16 16 16 16 16 16 16 16 16 16 17 17 17 18 19 19 20 21 22 23 25 26 28 29 31 32 33 34 36
22 22 21 20 19 19 18 18 18 18 18 18 17 17 16 17 17 17 17 17 17 16 16 17 17 18 18 19 19 20 21 23 24 25 26 28 30 31 32 33 34 36 37 38
22 22 22 21 21 20 20 20 20 20 20 19 18 18 17 17 17 17 17 17 17 17 18 18 19 20 20 21 22 23 24 25 26 27 29 31 32 34 35 36 36 37 39 39
24 23 23 22 22 21 21 21 21 21 21 20 19 19 19 18 19 19 19 19 19 19 19 20 21 22 23 24 25 26 27 28 29 31 32 34 35 36 37 38 38 39 40 41
25 24 24 23 23 23 22 22 21 21 21 21 21 20 20 20 20 20 20 21 21 21 22 22 23 24 25 26 27 28 30 31 32 34 35 36 37 37 38 39 40 41 41 42
26 26 25 25 24 24 23 23 23 22 23 22 22 22 22 22 22 23 22 22 23 23 24 25 26 27 28 29 30 31 32 34 35 36 37 37 38 38 39 40 41 42 43 43
27 27 26 26 25 25 25 25 25 25 25 25 25 24 25 25 25 25 25 25 25 25 26 28 28 29 30 32 32 33 34 35 36 37 38 38 39 40 41 41 42 43 43 44
27 27 28 28 27 28 27 27 27 27 26 27 27 27 27 27 27 27 27 27 28 28 29 30 31 32 33 34 35 35 36 37 37 38 39 39 40 41 42 42 43 43 44 45
28 28 28 28 28 29 29 28 28 28 28 28 28 28 28 28 29 29 29 30 31 31 32 33 34 34 35 35 36 37 37 38 38 39 39 40 41 41 42 43 44 45 46 46
29 29 28 28 28 29 29 29 29 30 30 30 30 30 30 30 30 31 31 32 33 34 34 35 36 36 37 37 38 38 38 39 39 40 40 41 41 42 43 44 46 46 47 47
30 30 29 29 28 28 29 29 30 30 30 31 31 31 31 32 32 32 33 34 35 35 36 36 37 37 38 39 39 39 40 40 40 41 42 42 43 43 45 46 47 47 47 48
30 30 30 30 30 30 30 30 30 31 31 31 31 32 32 33 33 34 35 35 36 36 37 37 38 38 39 39 40 40 41 41 42 42 43 44 44 45 46 47 47 47 47 48
30 30 30 30 30 30 30 30 31 31 31 31 32 32 33 33 34 34 35 36 36 37 37 37 38 38 39 40 40 41 41 42 42 43 44 44 45 46 47 47 47 47 47 47
30 30 30 31 31 31 31 31 31 31 31 32 32 32 33 34 34 35 35 36 36 36 37 38 38 39 39 40 41 41 42 42 42 43 44 45 46 46 46 46 47 47 47 48
30 30 31 31 32 32 32 32 32 32 32 32 33 34 34 34 34 34 35 36 37 37 38 38 39 39 40 40 41 41 42 42 43 43 44 45 45 46 46 46 46 47 47 48
30 30 31 31 32 32 32 32 32 32 33 33 34 34 34 34 34 35 35 36 37 37 38 39 39 39 39 40 41 42 42 43 43 44 45 45 45 45 45 45 45 46 46 46
30 30 31 31 31 32 32 32 32 32 32 33 33 33 34 34 35 35 36 36 37 37 38 38 38 39 40 41 42 42 43 43 43 44 44 44 44 44 44 45 45 45 46 46

GEFSNGP_500_meanwind_180.txt.gz
Wind_Speed
12 12 11 11 11 11 11 10 10 10 10 10 11 11 11 11 11 11 11 11 13 14 15 14 14 13 12 12 12 12 12 12 12 12 12 13 13 13 12 12 12 12 12 13
14 14 13 12 12 12 11 11 10 11 10 11 11 12 11 11 12 11 11 12 13 14 15 14 14 13 13 13 13 12 12 13 13 13 13 13 13 12 12 13 13 14 14 15
15 16 15 13 12 12 12 11 11 10 11 11 11 12 12 12 12 12 12 13 13 13 14 14 13 13 14 14 13 13 13 13 13 13 13 13 13 13 13 13 14 15 16 17
16 16 16 12 13 13 12 12 11 11 11 12 12 12 13 13 13 13 13 13 13 13 14 14 14 14 14 14 14 13 14 14 14 14 14 13 12 13 13 14 15 16 17 18
18 17 15 13 13 13 13 12 12 12 12 13 13 13 13 14 14 14 14 14 14 14 14 15 15 15 15 14 14 14 14 14 14 14 13 13 13 13 14 15 16 17 18 19
18 18 16 14 15 14 14 13 13 13 13 14 14 14 13 15 15 15 15 14 14 14 15 15 15 15 15 15 15 14 13 13 13 13 13 14 14 15 16 17 18 19 20 21
19 18 16 15 16 16 15 13 14 14 14 15 14 13 13 15 15 15 16 15 15 15 15 15 16 16 15 15 15 15 15 15 15 15 15 16 16 17 18 18 19 20 21 22
20 19 16 16 16 16 16 16 15 15 15 15 16 15 14 15 15 16 16 17 16 16 16 16 16 17 16 16 16 16 16 16 16 17 17 17 17 18 19 20 21 22 23 24
21 19 18 17 17 17 17 17 17 16 16 16 16 16 16 16 16 16 16 17 17 17 17 17 17 17 17 17 17 17 17 17 17 18 18 18 19 20 21 22 23 24 26 28
22 21 20 20 19 18 18 18 18 17 17 17 17 17 17 17 17 17 17 18 18 18 18 17 18 18 18 18 18 18 18 18 19 19 19 20 20 21 23 24 26 27 28 30
24 22 21 21 21 21 20 19 19 18 18 18 18 18 18 18 17 17 17 18 18 18 19 18 18 19 19 19 19 19 20 20 20 20 21 21 22 23 24 25 27 29 31 32
24 23 23 22 23 22 21 21 20 19 19 20 20 19 19 19 18 18 18 18 18 18 19 19 19 20 20 20 21 21 21 21 21 22 22 23 24 26 27 28 30 31 33 34
25 24 24 23 24 23 22 22 21 21 21 21 20 20 20 20 20 20 20 19 19 19 20 20 20 20 20 21 21 21 22 23 23 24 25 26 27 28 29 31 32 33 34 35
25 24 25 24 24 24 23 23 22 22 22 21 21 21 21 21 21 21 21 21 21 21 21 20 20 21 21 22 22 22 23 24 25 26 27 28 29 30 31 33 34 35 36 37
25 24 25 24 24 24 24 24 23 23 23 22 22 22 22 22 22 22 22 21 21 21 21 21 21 22 22 22 22 23 24 25 26 28 29 30 31 32 34 35 36 38 38 39
26 25 24 24 24 24 24 24 24 24 24 23 23 23 23 23 23 23 23 22 22 22 23 23 22 23 23 23 24 25 26 27 29 30 31 32 33 35 36 37 38 39 40 40
26 26 25 25 25 25 25 24 24 24 24 24 24 24 25 25 24 24 24 23 23 23 24 24 24 24 24 25 26 27 29 30 31 32 33 35 36 37 38 39 40 40 41 42
27 26 26 26 26 26 26 26 26 25 25 25 26 26 26 25 25 25 25 25 24 25 25 25 26 26 26 27 29 30 31 32 33 35 36 37 38 39 39 40 41 41 42 42
27 27 27 27 27 27 27 27 27 27 27 27 27 27 27 27 27 27 27 26 26 26 27 27 28 28 29 30 31 32 33 34 35 36 37 38 39 39 40 41 42 42 43 43
27 27 27 27 27 27 27 27 27 28 27 27 28 28 28 28 28 28 28 27 28 29 29 29 30 30 31 32 33 34 34 35 36 37 38 39 39 40 42 42 43 43 44 45
28 28 28 28 28 28 28 28 28 28 28 28 28 28 29 29 29 29 29 30 30 31 31 32 32 33 34 34 35 35 36 37 37 38 39 39 40 41 42 43 44 45 46 47
29 29 29 28 28 28 29 29 29 29 30 30 29 29 30 30 31 31 31 32 32 33 33 34 34 35 35 36 36 36 37 37 38 38 39 40 41 42 43 44 45 45 46 47
31 31 30 29 29 30 30 30 30 31 31 31 31 30 30 30 31 32 32 33 34 34 34 35 36 36 36 36 37 37 38 39 39 39 40 41 41 43 44 44 45 46 47 47
32 31 31 31 31 31 32 32 32 32 32 32 32 32 32 32 32 33 34 34 34 34 35 35 36 36 36 37 38 39 39 40 40 40 41 42 43 44 45 45 46 47 47 48
32 32 32 32 32 32 33 33 33 33 33 33 33 34 34 34 34 34 34 34 34 34 35 35 36 37 37 38 39 39 40 40 40 41 42 43 44 45 45 46 46 47 47 47
32 32 32 32 33 33 33 33 33 33 34 33 34 34 34 34 34 35 35 35 35 36 36 36 37 37 38 39 39 39 39 40 40 42 43 44 44 45 45 46 46 46 46 46
32 32 32 32 32 32 32 33 33 33 34 34 34 33 34 35 35 36 36 36 36 36 37 37 38 38 39 39 39 39 40 41 42 42 43 43 44 44 45 45 45 45 45 45

GEFSNGP_500_meanwind_186.txt.gz
Wind_Speed
13 13 12 11 10 9 9 9 9 9 10 10 10 10 10 11 11 11 12 13 13 14 14 14 14 15 15 15 14 14 14 14 14 15 15 15 14 14 14 14 14 14 14 14
15 14 14 13 12 11 11 10 10 10 10 11 12 11 11 11 12 12 12 13 14 14 14 14 14 14 15 15 15 15 15 15 14 15 15 15 15 15 14 15 15 15 14 14
16 16 15 15 13 13 12 11 11 11 11 12 12 11 11 11 12 12 12 13 13 13 14 14 14 15 15 15 15 15 15 15 15 14 14 15 15 15 15 14 14 14 14 15
18 17 17 15 15 14 13 13 12 12 12 12 12 12 12 12 12 13 13 13 13 13 14 14 14 14 15 15 15 15 15 15 15 14 14 15 15 14 14 14 15 15 14 14
19 18 17 17 16 14 14 14 14 13 13 13 13 12 12 12 13 13 14 14 14 14 14 14 14 14 14 15 15 15 15 15 15 15 15 15 15 15 15 15 14 15 15 15
20 20 18 17 16 16 16 15 15 15 14 14 13 13 13 13 14 14 15 15 15 15 15 15 15 15 15 15 15 15 16 16 17 16 16 16 16 16 16 15 15 15 16 17
20 21 19 18 16 16 17 16 16 16 15 15 15 15 15 14 14 14 15 15 16 16 16 16 16 16 17 17 17 17 16 17 17 18 17 17 17 17 16 16 16 17 18 19
21 21 20 19 18 18 18 17 17 17 17 17 16 16 15 15 15 15 15 15 16 16 16 17 17 17 17 17 17 17 17 17 17 18 18 17 17 17 17 18 18 19 20 21
22 21 21 20 20 19 19 18 18 18 18 18 17 17 17 16 16 16 16 16 15 16 16 16 17 17 18 18 18 18 18 17 17 17 17 18 18 18 19 19 20 21 22 23
24 23 22 21 21 20 20 19 19 19 19 18 18 18 17 17 17 17 16 16 16 16 16 17 18 18 18 19 19 19 19 19 18 19 19 19 20 20 21 22 22 23 24 24
25 24 24 23 22 22 21 21 21 20 20 20 19 19 18 17 17 17 17 17 17 17 17 18 19 19 18 18 18 19 20 20 21 20 20 21 22 22 23 23 24 25 25 26
26 25 25 24 23 22 22 22 21 21 21 20 21 20 20 19 19 18 18 18 18 18 18 18 18 19 19 19 19 19 19 20 21 21 21 21 22 23 24 25 26 26 27 28
26 26 25 24 24 24 23 23 23 22 22 21 22 21 21 21 20 19 19 19 19 19 18 19 19 20 20 20 20 21 21 22 21 21 21 21 22 23 24 25 26 27 28 30
26 26 26 25 25 25 24 24 23 23 23 22 22 22 22 21 21 21 20 20 20 20 20 20 20 21 21 21 22 22 22 23 23 23 23 23 24 25 25 26 27 29 30 32
26 26 26 25 25 25 24 24 23 23 23 22 22 22 22 22 21 22 21 21 21 21 21 21 21 21 22 22 22 22 23 23 24 24 24 25 25 26 27 28 30 31 33 34
27 26 26 25 25 24 24 23 23 23 22 22 22 22 22 22 22 22 22 22 22 21 22 22 22 22 22 22 22 23 23 24 24 25 25 26 27 28 29 30 32 33 35 36
28 27 26 26 25 25 24 24 23 23 22 23 23 22 22 22 22 22 22 22 22 23 23 23 23 23 23 22 23 23 24 25 26 26 27 28 28 29 31 32 34 35 37 38
27 27 26 26 26 25 25 25 25 24 23 23 24 23 23 23 23 24 24 24 23 23 23 23 24 24 24 24 24 25 25 26 27 28 28 29 30 32 33 35 36 37 38 38
28 27 26 26 26 26 26 26 26 25 25 24 24 24 25 24 24 24 24 24 24 24 24 25 25 25 25 25 26 26 27 27 28 29 30 31 32 33 35 36 37 38 38 39
29 28 28 27 26 26 26 26 26 26 26 26 25 25 25 26 26 25 25 25 25 26 26 25 25 26 26 27 27 28 28 29 30 31 32 32 34 35 36 37 38 38 39 40
30 29 28 27 27 27 27 27 27 27 27 27 27 27 26 26 26 26 26 26 26 27 27 27 27 27 28 29 29 29 30 30 31 32 32 33 34 36 37 38 39 39 40 41
31 30 29 28 28 27 27 28 28 27 27 27 28 27 27 27 27 27 27 28 28 28 28 29 29 30 30 30 31 31 31 32 32 33 33 34 35 36 38 39 40 41 41 42
31 31 30 29 29 28 28 28 28 27 27 27 27 27 28 28 28 28 28 29 29 29 30 30 30 31 31 32 32 33 33 33 34 34 35 36 37 38 39 40 41 42 42 43
31 30 30 30 29 29 29 28 28 28 28 28 28 28 28 28 29 29 29 30 30 31 31 31 32 33 33 34 34 34 34 35 36 37 38 39 39 39 40 41 42 42 43 44
30 30 30 30 30 30 30 30 30 30 29 29 29 29 30 30 30 30 30 30 31 31 32 32 33 33 34 35 35 35 36 36 37 38 39 40 40 41 41 42 43 43 44 45
29 29 30 30 31 31 31 31 31 31 30 30 30 31 31 31 31 31 31 32 32 32 33 34 34 35 36 36 36 36 37 38 38 39 40 41 41 41 42 42 43 43 44 44
29 29 30 30 30 31 31 31 31 31 31 31 31 32 32 32 32 32 32 32 33 33 34 34 35 35 36 36 37 38 38 39 39 39 40 41 42 42 42 42 42 43 43 43

GEFSNGP_500_meanwind_192.txt.gz
Wind_Speed
15 14 14 13 12 13 13 13 12 12 12 12 12 12 12 12 12 11 11 12 12 12 12 13 13 13 13 12 12 13 13 13 12 13 13 13 13 14 15 15 15 15 15 16
17 16 15 14 14 13 13 13 13 13 13 13 12 12 12 12 12 12 12 12 12 12 13 13 14 14 14 14 13 13 13 13 13 13 14 14 14 15 16 16 16 15 16 15
18 17 17 16 14 15 14 13 13 13 13 13 13 13 13 12 12 13 13 12 12 13 13 14 14 15 15 15 14 14 14 13 14 14 15 15 15 15 15 16 16 15 15 14
20 19 19 16 15 16 15 14 14 14 14 14 13 13 13 13 13 13 13 12 13 13 14 14 14 14 15 15 15 14 14 14 14 15 15 15 15 15 15 15 15 14 14 14
22 21 20 19 17 16 15 15 15 15 15 15 14 14 14 14 14 14 14 14 14 13 13 14 14 15 15 15 15 15 15 14 15 15 16 16 16 16 16 16 16 15 15 16
23 22 22 20 18 17 18 18 17 16 15 16 16 16 15 15 14 14 14 15 15 14 14 14 15 15 15 15 14 15 15 15 16 16 16 17 17 17 17 16 16 17 17 18
23 23 23 22 18 17 18 18 17 17 16 17 17 17 16 16 15 15 15 15 15 15 15 15 16 16 15 15 15 15 16 16 16 17 17 17 18 18 18 18 18 18 19 19
23 24 24 22 20 19 19 19 18 18 18 18 18 18 17 17 17 17 16 16 16 16 16 16 17 17 17 16 16 16 16 16 17 17 17 17 18 19 19 19 19 19 20 20
26 25 24 23 22 21 21 21 20 20 19 18 18 19 18 17 17 17 17 17 17 17 17 17 17 17 18 18 17 17 17 17 17 17 17 17 18 19 20 20 20 20 21 21
27 26 26 25 23 23 23 22 22 21 20 20 20 20 19 18 18 17 18 17 17 18 17 17 17 17 18 18 17 18 18 18 17 17 17 17 19 19 19 20 20 20 21 21
28 27 26 25 24 24 24 23 22 22 22 21 21 20 20 19 19 18 18 18 18 17 17 17 17 17 17 17 17 18 18 18 18 18 18 18 19 20 20 21 21 21 22 22
28 26 25 25 26 25 24 23 23 23 22 22 22 21 21 20 20 19 18 18 18 18 18 18 18 17 17 18 18 19 19 19 19 19 19 19 20 20 21 22 22 22 24 25
28 27 27 26 25 25 25 25 24 24 23 23 23 23 22 22 21 20 20 20 19 19 19 19 18 18 18 18 19 19 20 20 20 20 21 21 22 22 22 22 23 24 26 27
29 29 28 27 26 26 26 25 24 24 24 24 24 23 23 23 22 22 21 21 21 20 20 20 20 20 20 20 20 20 21 21 21 21 22 23 23 23 23 24 25 26 28 29
30 29 28 27 27 27 26 25 25 25 24 24 24 23 23 23 23 22 22 22 22 21 21 21 21 21 21 21 22 22 22 22 22 23 23 24 24 24 25 25 26 27 29 30
31 30 29 28 28 27 27 26 25 25 25 24 24 23 23 23 22 22 22 22 22 22 22 22 22 22 22 22 22 23 23 24 24 24 24 24 25 26 26 27 28 29 30 32
30 30 30 29 28 28 27 26 26 26 25 25 24 24 24 24 23 23 22 22 22 22 22 22 23 23 23 23 23 24 24 25 25 24 25 26 26 27 28 29 30 31 32 33
29 30 29 30 30 29 28 27 27 26 26 26 25 25 25 24 24 24 23 23 23 22 22 22 23 23 24 24 24 24 25 25 25 26 26 26 27 28 29 31 31 32 33 34
28 28 29 29 30 29 28 28 27 27 27 27 26 26 25 25 25 24 24 24 23 23 23 24 24 24 24 25 25 25 26 26 26 27 28 28 29 30 31 32 32 33 34 35
29 28 28 29 29 29 29 28 28 27 27 27 27 26 26 26 26 25 25 25 24 25 25 25 25 26 26 26 26 26 26 27 27 28 29 29 30 31 32 33 34 35 36 37
30 30 29 29 29 30 30 29 29 28 28 28 28 27 27 27 27 26 26 26 26 26 26 27 27 27 28 28 28 28 28 28 29 29 30 30 32 33 33 34 35 36 37 38
29 29 29 29 29 29 30 30 29 29 29 29 28 28 28 28 28 28 28 28 28 28 28 28 29 29 29 30 30 30 30 30 30 31 31 32 33 34 35 36 36 37 38 39
28 29 29 29 29 29 29 30 30 30 29 29 29 29 29 30 30 30 30 30 30 30 30 30 30 30 31 31 31 31 31 31 32 32 33 33 34 35 35 36 37 38 39 40
29 30 30 29 29 29 29 29 30 30 30 30 31 31 31 31 30 31 31 30 31 31 32 32 32 32 31 31 31 32 32 32 33 33 34 35 35 36 37 38 38 39 40 41
29 29 29 29 30 29 30 30 30 30 30 31 31 31 31 31 31 30 31 31 31 31 32 32 32 32 32 31 32 32 33 33 34 34 35 36 36 37 38 39 39 40 40 41
29 30 30 29 30 30 30 30 30 31 31 31 31 31 31 31 31 31 31 31 31 31 31 31 32 32 32 32 33 34 34 35 35 35 36 37 37 38 38 38 39 40 41 41
29 30 30 29 29 30 30 30 30 30 31 31 31 31 31 31 32 32 32 32 32 32 32 32 33 33 33 33 34 35 36 36 36 37 37 38 38 38 38 39 40 41 41 41

GEFSNGP_500_meanwind_198.txt.gz
Wind_Speed
16 16 16 16 15 14 14 14 14 12 12 11 11 11 11 11 11 11 11 11 12 13 13 14 14 14 14 14 14 14 14 14 14 14 14 14 14 14 14 14 14 14 14 14
17 17 18 17 16 15 15 14 14 13 12 11 12 12 11 11 11 11 11 11 12 13 13 14 14 14 14 14 15 15 14 14 15 15 15 14 14 15 14 14 15 15 15 14
18 18 20 19 17 16 16 15 14 14 12 12 12 11 11 11 11 11 11 11 11 12 13 14 14 14 14 14 14 14 15 15 15 15 15 15 14 14 14 15 15 15 16 15
20 20 22 18 17 16 16 15 15 15 14 13 12 12 11 11 11 12 12 12 11 11 12 13 14 14 14 15 15 15 15 15 15 15 14 14 14 14 14 15 15 16 16 16
23 22 21 19 18 17 17 16 15 15 15 14 13 13 12 12 12 12 13 13 13 13 13 13 13 14 14 14 15 16 16 16 16 15 15 15 15 15 15 15 16 16 16 16
24 23 22 19 18 18 19 17 15 15 15 15 14 14 12 13 13 14 14 14 14 14 14 14 14 14 15 15 16 16 16 16 16 16 16 16 16 16 16 16 16 16 16 16
25 24 22 19 19 19 20 17 16 16 16 16 15 14 14 13 14 14 15 15 15 15 15 15 16 16 15 15 16 16 16 16 17 17 17 17 17 17 17 16 16 16 17 18
25 25 23 20 19 19 19 18 17 17 17 17 16 16 15 15 15 15 15 15 16 16 16 16 16 16 16 16 16 17 17 17 17 17 17 17 17 17 17 17 17 17 18 19
25 24 22 21 19 19 19 18 17 17 18 18 18 17 16 16 16 16 16 16 16 16 16 16 16 16 16 16 17 17 17 17 17 17 17 17 17 17 17 17 17 17 18 18
25 24 23 21 20 20 19 19 18 18 18 18 18 17 17 17 17 17 17 17 17 17 17 16 17 17 17 17 17 18 18 18 18 17 17 17 17 17 18 18 18 18 18 19
25 24 24 23 22 22 21 20 20 19 20 20 19 19 18 18 18 19 19 18 18 17 17 17 17 17 17 17 18 18 19 19 19 18 18 18 18 18 19 20 20 20 21 21
27 26 25 24 24 23 21 21 21 21 21 21 21 20 19 19 19 19 19 19 19 18 18 18 18 18 18 18 19 20 20 19 19 19 19 19 19 19 20 21 21 22 23 23
27 26 26 26 25 25 23 22 21 21 21 22 22 21 20 20 20 19 19 19 19 19 19 18 19 19 19 19 20 20 20 20 20 21 21 21 21 21 22 22 23 24 25 25
26 26 27 27 26 25 24 24 23 22 22 22 22 22 21 21 20 20 19 19 20 19 19 19 19 19 20 20 20 20 21 21 21 22 22 23 23 23 23 24 24 25 25 25
26 26 26 26 25 25 25 25 24 23 22 22 22 22 22 22 21 21 20 19 19 19 19 19 20 20 20 20 21 21 22 22 22 23 23 23 23 24 24 25 25 25 26 26
27 27 27 27 26 25 25 25 24 24 24 24 23 23 23 23 22 21 21 21 20 20 20 20 20 20 20 21 21 22 22 23 23 24 24 24 24 24 25 25 26 26 27 27
28 27 27 26 26 25 26 25 24 24 25 24 25 25 24 24 23 22 22 22 22 22 22 21 21 21 21 21 21 22 22 23 23 23 24 24 25 25 26 26 26 27 28 28
28 27 27 26 26 26 26 25 25 25 25 25 26 26 26 25 24 24 23 24 23 23 22 22 22 22 22 22 22 23 23 23 23 23 24 25 25 26 26 27 28 29 29 31
27 28 28 26 26 26 25 25 25 26 26 26 26 27 27 27 26 25 25 24 24 23 23 23 23 24 24 24 24 24 24 24 24 25 25 25 26 26 27 28 29 31 31 32
26 26 27 26 25 25 25 25 26 26 26 26 27 27 27 27 27 26 26 25 25 24 24 24 25 25 25 26 26 26 26 26 26 26 27 27 27 28 28 29 31 32 32 34
26 26 26 26 25 25 25 26 26 26 26 26 27 27 27 27 27 27 27 26 26 25 25 25 25 26 26 27 27 27 27 28 28 28 29 29 30 30 30 31 32 33 34 35
27 27 27 27 26 25 25 25 25 26 26 27 27 27 27 27 27 28 28 27 27 27 27 27 27 27 27 28 28 29 29 29 30 31 31 31 31 32 32 32 33 34 35 36
28 27 28 28 27 25 24 25 25 25 26 27 27 28 28 27 28 28 28 28 28 28 28 28 28 29 29 29 29 29 30 30 31 32 32 31 32 32 33 33 34 35 36 36
27 27 28 28 27 26 25 25 26 26 26 27 27 28 29 29 28 28 28 29 28 28 28 28 29 30 30 30 31 31 31 31 32 32 32 32 33 33 33 34 35 35 35 36
26 27 28 28 27 27 26 26 26 27 27 27 28 28 28 29 29 28 28 29 29 29 29 30 30 30 30 31 31 32 32 32 33 33 33 34 34 34 34 34 34 35 35 36
26 26 27 27 27 27 27 27 27 27 27 27 27 28 29 29 28 28 28 29 29 30 30 31 31 31 32 32 32 32 32 33 34 34 35 35 35 35 35 35 35 35 36 37
26 26 26 27 27 27 27 26 26 27 27 27 27 28 29 28 28 28 29 29 30 30 31 32 32 32 33 33 33 33 33 33 34 35 35 35 35 36 35 36 36 37 38 39

GEFSNGP_500_meanwind_204.txt.gz
Wind_Speed
19 19 18 18 18 17 17 16 15 14 13 12 12 13 14 15 15 15 15 15 15 16 16 15 16 16 16 17 17 16 16 15 15 16 15 15 16 16 15 15 15 15 15 15
21 20 21 20 19 19 18 17 16 15 14 13 13 14 14 15 15 15 15 15 15 16 16 16 17 17 17 17 18 17 17 16 16 16 16 16 17 16 16 16 16 16 15 16
23 22 22 21 18 18 18 18 17 16 14 15 15 15 15 15 15 15 14 15 15 15 16 17 16 17 16 17 18 18 18 17 17 17 17 17 17 16 16 17 17 16 16 17
24 24 25 20 19 19 19 18 18 17 16 16 16 16 16 16 16 16 15 15 16 16 16 16 17 17 17 17 18 18 18 18 18 18 18 18 18 18 18 17 17 17 17 17
25 25 24 21 19 19 20 20 19 18 18 17 17 17 16 15 15 16 16 16 16 17 17 17 17 17 18 18 18 18 18 19 19 19 19 19 19 19 18 18 18 18 17 17
25 25 24 20 19 20 21 20 19 19 18 18 18 18 16 16 16 17 17 17 18 17 17 17 17 17 17 18 18 18 18 18 19 19 19 18 19 19 19 18 18 17 17 17
25 25 23 21 20 20 21 19 19 20 19 20 20 18 17 17 17 18 18 18 18 18 17 17 16 16 16 17 17 17 18 18 18 18 18 18 18 18 18 18 18 18 18 18
25 25 22 21 21 20 19 19 20 20 21 21 20 19 19 18 18 18 18 18 18 18 18 18 17 16 16 16 17 17 17 17 18 18 18 18 18 19 19 20 20 19 19 19
26 24 23 22 22 21 21 20 20 20 21 22 21 21 20 19 18 19 19 19 19 19 19 19 18 17 17 17 17 17 17 17 17 17 17 18 19 19 19 20 19 19 19 20
27 26 25 24 24 23 22 21 21 21 22 22 22 22 22 20 20 19 19 19 19 19 19 19 19 19 18 18 18 18 18 17 17 18 18 19 19 19 20 20 20 20 20 21
28 27 26 25 24 23 24 23 23 22 22 23 23 22 22 21 21 20 19 19 19 19 20 20 20 19 19 19 19 18 18 18 19 19 19 19 20 21 21 20 20 20 21 22
28 28 27 25 25 24 23 23 24 24 24 24 23 23 22 22 21 21 20 20 19 20 20 21 21 20 20 20 19 19 19 19 19 20 21 20 20 20 20 21 22 22 22 22
29 29 28 26 25 25 25 24 24 25 25 25 24 24 23 22 22 22 21 20 20 20 21 20 21 20 20 19 19 20 20 20 20 21 21 21 21 21 21 22 22 23 23 23
29 29 29 28 26 26 26 26 25 25 25 25 24 24 23 23 22 22 21 21 21 20 20 20 21 20 20 20 20 20 20 20 21 21 21 21 22 22 22 22 23 23 24 25
29 29 29 28 28 27 26 26 26 25 24 24 24 23 23 24 23 22 21 21 21 21 21 21 21 21 21 21 21 21 21 21 21 21 21 22 22 23 23 24 24 25 25 26
29 29 28 29 28 27 27 26 25 24 24 24 24 24 23 23 23 22 22 22 22 21 21 22 22 22 22 22 22 23 22 22 23 23 23 23 23 24 24 25 25 26 26 26
28 29 29 29 29 28 28 26 26 25 24 24 24 24 23 23 23 23 23 23 22 22 22 23 23 23 23 23 23 23 23 23 24 24 24 24 25 25 26 26 26 26 27 27
28 29 29 29 29 29 28 28 27 26 25 24 24 24 24 23 23 23 23 23 23 23 24 24 24 24 24 23 23 23 24 25 25 25 25 25 26 26 27 27 27 27 28 29
28 29 29 28 28 28 28 28 27 27 26 25 25 25 25 25 25 24 24 24 24 24 24 25 25 25 25 25 25 25 25 25 25 26 26 27 27 28 28 28 28 29 29 30
27 27 27 27 27 27 28 27 26 26 26 26 26 25 25 25 26 26 26 26 25 25 25 25 26 26 26 26 26 26 26 26 26 26 27 27 28 28 29 29 30 31 31 32
27 27 27 26 26 26 26 26 26 25 25 25 25 25 26 26 26 26 26 26 26 26 26 26 26 27 27 27 27 27 27 27 27 28 28 28 29 29 29 30 30 31 32 33
27 26 26 26 26 25 25 26 26 26 26 26 26 26 26 27 27 27 26 26 27 27 27 27 27 27 27 28 28 29 29 29 30 30 30 30 30 30 30 30 31 32 33 33
27 26 26 26 26 26 25 25 25 26 26 26 27 27 26 26 27 27 27 26 27 27 28 28 28 29 29 29 30 30 30 30 30 31 31 32 31 32 32 33 33 33 34 35
26 26 27 27 26 26 26 26 26 26 27 27 27 27 27 27 27 27 28 28 28 28 28 29 29 30 30 30 31 31 31 31 32 32 32 33 33 33 34 34 34 35 35 35
26 25 26 26 26 26 26 27 27 27 28 28 28 28 27 28 28 28 28 29 29 29 30 30 31 31 31 31 32 32 32 32 33 33 33 33 34 34 35 36 36 36 37 37
27 26 26 26 26 26 27 27 27 27 27 28 28 28 28 28 28 29 29 29 29 30 30 30 30 30 31 31 32 32 33 33 34 34 35 35 35 36 36 36 36 36 37 37
27 26 26 26 26 26 27 26 26 26 27 27 27 28 28 27 28 28 29 29 29 29 29 29 30 30 31 31 32 32 33 34 35 35 36 36 36 37 37 37 37 37 36 36

GEFSNGP_500_meanwind_210.txt.gz
Wind_Speed
21 21 20 20 20 19 19 17 17 16 15 14 14 14 14 14 15 15 15 16 15 14 14 16 16 16 17 17 17 17 17 18 17 16 17 16 16 15 15 15 15 15 14 14
22 22 21 22 21 20 20 19 18 17 16 15 15 15 15 15 15 15 15 15 15 15 15 15 17 17 18 18 18 18 18 18 18 18 17 17 16 15 16 16 15 15 15 15
23 22 23 23 21 20 20 20 19 18 16 16 16 16 16 15 15 15 15 15 16 15 15 15 15 16 17 18 19 20 19 19 18 17 17 17 17 16 16 16 16 16 15 16
23 24 25 23 22 22 21 20 20 19 18 18 18 17 17 17 17 17 16 16 16 16 16 15 15 16 17 18 18 18 18 19 19 18 18 18 17 17 17 17 17 16 16 16
23 25 25 24 22 22 23 22 21 20 19 19 19 18 18 18 17 17 17 17 16 16 16 16 16 16 17 18 18 18 18 19 19 19 19 19 19 19 19 18 17 17 17 17
25 26 26 24 23 22 23 22 21 21 20 20 20 20 19 19 19 18 17 17 17 16 16 16 16 16 17 18 18 18 19 19 19 20 20 20 20 20 19 19 18 18 17 17
26 26 25 24 24 23 24 23 22 22 21 21 22 21 20 20 20 19 18 18 18 17 17 16 16 17 17 16 16 17 18 18 19 19 19 19 19 19 19 19 19 18 18 18
26 26 24 24 24 24 23 23 23 23 22 22 23 22 21 21 21 20 19 19 19 18 18 17 17 17 18 17 17 17 17 17 18 19 19 19 19 19 18 18 19 19 19 20
26 25 24 24 23 23 23 23 23 23 23 23 23 23 22 22 22 22 21 20 20 19 19 19 18 18 18 19 19 19 18 18 18 18 19 19 19 18 18 18 18 19 19 19
27 26 25 24 24 23 22 22 22 23 23 23 23 23 23 23 22 22 21 21 20 20 20 20 20 19 19 19 19 20 20 19 18 18 19 18 18 18 18 18 19 19 19 19
27 26 26 25 25 24 23 23 23 23 23 23 22 22 22 23 22 22 21 21 21 21 21 21 20 21 21 20 20 20 20 20 19 19 19 19 18 18 18 18 18 19 19 19
27 27 27 26 26 25 24 24 24 23 23 24 23 23 22 22 21 21 21 22 22 21 22 21 21 20 21 21 21 21 20 20 20 19 19 19 19 19 19 19 20 20 20 20
27 27 28 27 26 26 25 25 25 25 25 24 24 24 23 23 22 22 21 21 22 22 22 22 21 21 20 21 21 21 21 21 21 21 20 21 21 20 20 20 21 21 21 21
27 27 27 27 26 26 26 26 26 26 26 25 25 24 24 23 23 22 22 21 21 22 22 22 22 21 21 21 21 21 22 22 22 22 22 22 21 21 21 21 21 22 22 23
28 27 27 27 26 26 26 26 27 27 26 26 26 25 25 24 24 23 23 22 21 21 21 21 21 21 21 21 22 22 22 23 23 23 23 23 23 23 23 23 23 23 24 24
27 27 27 27 27 27 26 26 26 26 26 26 26 26 26 25 24 24 24 23 23 22 22 22 22 22 23 23 22 22 22 23 24 24 24 24 24 24 25 25 24 25 25 25
26 26 27 27 27 26 26 25 25 25 26 26 26 26 26 25 24 24 24 24 24 24 24 23 23 23 23 23 23 23 23 24 25 25 24 24 24 25 26 26 26 27 27 27
26 26 26 27 27 26 27 26 26 25 25 25 26 26 25 24 24 24 23 24 24 24 24 24 24 24 24 23 23 24 24 24 25 25 25 25 25 26 27 27 28 28 28 28
26 26 26 26 25 25 25 26 25 25 26 26 26 26 25 25 24 24 23 23 23 23 24 24 25 25 25 25 25 25 26 25 25 26 27 26 26 27 28 29 29 29 28 29
26 26 26 25 25 25 25 25 25 26 26 26 25 25 25 25 25 25 24 23 23 23 24 25 25 25 25 26 26 27 27 26 26 27 27 28 28 28 28 28 29 29 29 29
25 26 25 25 25 25 25 25 25 25 26 25 25 25 25 25 25 25 25 24 23 24 24 25 26 26 26 26 27 27 28 27 27 27 27 27 28 28 29 29 29 30 30 31
25 25 25 25 25 25 25 25 25 25 25 25 25 25 26 26 26 26 26 25 25 25 25 25 26 26 26 27 27 28 28 29 29 29 29 29 29 29 29 30 30 31 32 32
25 25 25 25 24 24 24 25 25 25 25 24 25 25 25 25 25 26 26 25 25 26 26 26 26 26 26 26 27 28 28 29 29 30 30 30 30 30 31 31 31 32 33 33
25 24 25 24 25 24 24 24 24 25 25 25 25 25 25 25 25 26 26 26 26 27 27 27 27 27 27 27 28 28 28 29 30 30 31 32 32 32 33 33 33 33 34 34
25 25 25 25 25 25 24 24 24 25 25 25 26 26 26 26 26 26 26 26 27 27 27 28 28 28 28 29 29 29 29 30 31 32 32 33 33 34 34 35 35 35 36 36
25 25 25 25 25 25 25 24 24 25 25 25 26 26 26 26 26 27 26 27 28 28 28 28 28 29 29 29 30 30 31 31 32 32 33 34 34 35 35 36 36 36 36 37
26 26 26 27 26 26 25 25 25 25 25 25 26 26 26 26 27 27 27 27 27 28 28 28 29 29 29 30 30 30 31 32 32 33 33 34 35 35 36 36 36 36 36 37

GEFSNGP_500_meanwind_216.txt.gz
Wind_Speed
21 21 22 22 21 21 21 21 20 19 19 19 20 19 18 18 17 17 17 17 16 16 16 16 16 16 16 16 16 16 16 17 16 16 17 17 17 17 17 17 16 16 16 16
23 22 23 23 22 22 22 22 21 20 20 20 21 20 19 18 18 18 18 18 17 17 17 16 16 16 17 17 17 17 16 16 17 17 17 17 17 17 18 17 17 17 17 17
23 23 23 24 23 24 24 23 22 21 20 21 21 20 20 20 20 19 19 19 18 17 17 17 16 17 17 17 17 17 17 17 17 18 18 18 18 19 19 18 18 18 18 18
23 24 25 24 23 23 24 24 23 22 21 21 21 21 20 20 20 20 20 19 19 18 17 17 17 17 17 17 17 18 18 17 18 18 19 19 19 20 20 19 19 19 18 18
25 26 26 25 24 23 23 24 23 23 22 22 22 21 21 20 20 20 20 20 19 18 18 17 17 17 16 17 17 17 18 18 18 18 19 19 19 19 19 19 19 19 18 19
25 25 26 25 24 24 24 24 23 23 23 23 22 23 21 21 21 21 20 20 20 19 18 18 18 17 17 17 17 18 18 19 19 19 19 19 18 18 19 19 19 19 19 19
26 26 26 24 22 23 25 23 23 24 24 24 23 23 22 23 23 22 21 21 20 20 19 19 19 19 19 19 18 18 18 17 18 18 18 18 18 18 19 19 19 19 19 19
26 27 27 25 23 23 24 24 25 25 24 24 24 24 24 24 23 22 22 21 21 20 20 20 20 20 20 20 19 19 19 19 19 19 19 19 19 18 18 18 18 18 19 19
26 27 27 26 25 25 26 26 25 25 24 24 25 24 24 24 24 24 23 23 22 21 21 21 21 21 21 20 20 20 20 20 20 20 20 19 19 19 20 20 19 19 19 19
27 28 28 26 26 26 27 27 26 25 25 24 24 24 24 24 24 24 24 23 23 23 22 21 21 21 21 21 21 20 20 21 21 21 21 21 21 20 20 20 20 20 20 19
29 28 28 27 26 27 28 28 27 27 26 25 25 25 25 25 24 24 24 24 23 23 23 22 22 22 21 21 21 20 20 21 21 22 22 22 22 21 21 21 22 21 21 20
30 30 30 29 28 28 28 28 27 27 27 26 26 25 25 25 24 24 24 24 24 24 24 23 23 22 22 22 21 21 21 20 21 21 21 22 22 22 23 23 23 22 22 22
30 31 31 30 30 28 27 27 27 27 27 26 26 26 25 25 24 24 23 23 23 24 24 24 23 23 23 23 22 22 21 21 20 20 21 22 22 22 22 23 24 24 24 23
31 30 30 30 29 28 28 28 27 27 27 27 27 26 25 25 24 24 24 23 23 23 24 24 23 23 23 23 23 23 22 22 22 21 21 21 22 22 23 23 23 24 24 24
30 29 29 29 27 27 27 27 27 27 27 27 26 26 25 25 24 24 24 24 24 24 24 24 24 24 24 24 24 24 23 23 23 23 23 22 23 23 23 23 23 23 23 24
28 29 28 28 28 27 27 27 26 26 26 26 26 26 26 25 25 25 25 25 24 24 24 24 24 25 25 25 25 25 25 25 25 24 24 23 23 23 24 24 24 24 24 25
28 27 28 29 28 27 27 27 26 26 25 25 26 26 26 26 26 25 25 25 25 24 24 24 24 24 24 25 25 25 25 25 26 25 25 24 24 24 25 25 25 26 26 26
28 28 28 29 28 27 27 27 27 27 27 26 26 27 27 27 26 25 25 25 25 25 25 24 25 25 25 25 26 26 26 26 26 25 25 26 26 26 26 26 27 27 28 28
27 27 27 28 29 29 28 28 27 27 27 26 27 27 27 26 26 26 25 25 25 25 25 25 26 26 26 26 26 27 27 27 26 26 26 27 27 28 28 28 28 28 29 29
28 27 27 27 29 29 29 28 28 28 27 26 26 26 27 27 27 26 26 26 25 26 26 26 26 27 27 26 27 27 28 27 27 27 27 27 28 28 29 29 29 30 30 31
28 28 27 27 28 29 29 28 28 28 28 28 28 28 28 27 27 27 27 27 26 26 27 27 27 27 27 27 28 28 28 28 28 28 28 29 29 29 30 30 31 31 31 31
28 27 27 27 28 29 29 29 29 29 30 29 29 28 28 27 27 27 27 27 26 27 27 27 27 28 28 29 29 29 29 29 29 29 29 29 30 30 31 31 31 31 32 32
27 26 26 27 28 28 28 28 28 29 29 29 29 28 27 27 27 27 26 26 27 27 27 27 27 27 28 29 29 29 29 29 29 29 29 30 31 31 31 31 32 32 33 33
27 26 26 26 27 27 27 28 28 29 29 28 28 28 28 27 27 26 26 26 26 27 27 27 27 27 27 28 28 28 29 29 30 30 31 31 31 32 32 32 32 33 34 35
26 27 27 27 27 27 27 27 28 28 28 27 27 28 28 28 27 27 27 27 27 27 27 27 27 27 28 28 28 29 29 30 31 31 31 32 32 32 33 33 34 35 35 35
26 27 27 28 28 28 28 27 27 27 27 27 27 28 28 28 28 28 28 28 28 28 28 29 29 29 29 29 29 29 29 30 30 31 32 32 33 33 34 34 34 35 35 35
27 26 27 29 29 28 28 27 27 28 28 28 28 28 28 28 28 28 29 29 29 29 29 29 29 29 29 30 30 30 30 30 31 31 32 32 33 34 34 34 35 35 36 36

GEFSNGP_500_meanwind_222.txt.gz
Wind_Speed
20 20 20 19 19 19 20 21 21 19 19 17 17 16 16 16 15 14 14 14 13 13 14 14 14 15 15 16 16 16 16 15 15 15 15 15 15 15 15 15 15 14 14 15
21 22 22 21 20 20 21 21 21 20 20 18 18 17 17 16 16 15 14 14 14 14 14 15 15 15 15 16 16 16 16 16 16 16 16 16 16 16 16 16 16 16 15 15
22 22 23 22 20 20 21 20 20 20 19 19 19 19 18 18 18 17 16 16 16 16 15 15 15 15 16 16 17 17 17 17 17 17 17 17 17 17 17 17 17 16 16 16
23 23 24 20 19 20 20 21 21 20 19 19 19 19 19 19 19 18 17 17 18 18 17 16 16 16 16 17 17 17 17 17 17 17 17 17 18 18 18 18 18 18 18 18
23 24 23 21 20 20 21 21 21 20 19 20 19 20 20 19 19 19 18 18 19 18 18 17 17 17 17 17 17 17 16 16 17 17 18 18 19 19 20 19 18 18 19 19
23 24 24 21 21 20 21 21 20 20 19 20 19 20 19 19 19 19 19 19 20 19 19 19 18 18 18 18 18 17 17 17 18 18 19 19 19 19 19 19 19 19 19 19
24 24 23 23 22 21 21 20 21 21 21 21 21 20 20 20 20 20 20 20 20 21 20 20 20 19 19 19 19 19 19 19 19 18 18 18 19 19 20 20 19 20 20 20
24 25 23 23 24 23 22 21 21 21 22 21 21 21 21 20 20 21 21 21 21 21 20 21 22 21 20 20 20 20 20 19 19 19 19 19 18 19 19 20 20 20 20 20
24 24 24 24 25 25 23 23 23 22 22 22 22 21 21 21 22 22 22 21 21 21 20 21 21 21 21 21 21 21 21 21 20 20 19 19 19 19 19 19 20 21 21 21
26 26 26 26 26 26 25 25 24 24 24 23 23 22 23 23 22 22 22 22 21 21 20 21 22 22 22 22 21 21 21 21 21 21 20 20 20 20 19 19 20 20 21 21
27 27 28 28 28 27 26 25 25 25 25 25 24 24 23 23 22 21 21 22 22 22 21 21 21 22 22 22 22 21 21 21 22 21 21 21 21 21 21 21 20 21 21 21
27 27 28 28 28 27 27 26 26 26 26 25 26 25 23 23 23 22 22 22 22 21 22 22 21 21 22 22 22 22 21 21 22 22 22 22 22 22 22 22 21 21 21 21
28 27 27 26 26 26 26 27 27 27 26 26 26 25 24 24 24 23 22 22 21 21 21 22 21 21 21 22 22 22 22 21 22 22 22 22 22 23 23 23 22 22 23 23
28 28 28 27 26 26 26 27 27 26 26 26 26 25 25 24 24 23 23 22 22 22 22 22 22 22 22 22 22 22 22 22 22 21 21 21 22 22 23 23 23 23 24 23
29 29 27 26 26 26 27 27 27 27 26 26 26 25 25 24 24 24 24 23 23 23 22 22 22 22 22 22 22 22 22 21 22 22 22 22 22 23 23 23 23 23 24 24
30 29 27 27 27 26 27 27 26 27 26 25 25 25 24 24 24 23 23 23 23 23 23 22 22 21 22 22 22 22 22 22 22 22 22 22 23 23 23 23 24 24 24 25
30 29 29 29 29 28 28 27 27 27 26 25 25 26 26 25 25 24 23 23 23 23 23 23 23 23 22 23 23 23 23 23 23 23 23 23 23 24 24 24 24 25 25 26
29 29 29 29 28 28 28 29 29 28 27 27 26 26 27 27 26 25 25 25 24 23 23 23 23 23 23 23 23 23 24 24 24 25 25 25 25 26 26 25 26 26 26 27
28 28 28 28 28 28 28 28 30 29 29 29 28 26 26 27 27 26 26 26 24 24 23 23 23 24 24 24 25 25 25 25 26 27 27 27 27 27 27 27 28 28 28 29
28 28 27 27 28 28 28 29 29 29 30 30 30 29 28 27 27 27 27 27 26 25 25 24 24 25 25 26 26 26 26 27 27 27 28 29 29 29 29 29 29 29 30 30
27 27 28 28 28 29 29 29 30 30 30 31 30 30 30 30 29 28 28 27 26 26 26 26 26 26 26 27 27 27 27 27 27 27 28 29 30 30 30 30 30 30 30 31
27 27 28 29 29 29 29 30 31 30 30 30 30 30 30 30 30 30 30 29 29 28 28 28 27 27 27 28 28 28 28 28 28 28 29 29 30 30 30 29 30 30 30 31
27 27 27 29 29 29 29 29 30 30 30 30 30 30 30 31 31 31 31 31 30 30 29 29 29 29 29 29 29 29 29 29 29 29 30 29 30 30 29 30 30 30 31 31
27 27 27 28 28 28 28 28 29 30 30 30 29 29 30 31 31 31 30 30 30 30 30 30 30 30 30 30 30 30 30 30 30 30 30 30 30 30 30 30 30 31 31 32
27 27 28 28 28 28 28 28 29 30 30 30 30 30 30 30 30 29 29 29 29 29 29 29 29 30 30 30 30 30 30 30 31 31 31 31 31 31 31 31 31 32 33 33
27 27 27 28 29 29 28 28 29 29 29 30 29 29 29 29 29 29 29 29 29 30 30 30 30 30 30 30 30 30 30 31 31 31 31 31 32 32 32 32 33 33 34 35
26 26 27 27 28 28 28 28 28 28 28 28 28 28 29 29 29 30 30 30 30 30 30 30 31 31 31 31 30 30 30 31 31 31 31 31 31 32 32 33 33 33 34 34

GEFSNGP_500_meanwind_228.txt.gz
Wind_Speed
21 21 21 21 21 21 22 22 22 20 19 18 19 19 19 18 18 18 17 17 16 17 17 16 16 16 16 15 15 15 15 16 16 16 16 15 15 15 16 16 15 16 16 17
22 22 22 23 23 23 23 23 22 21 21 20 20 20 19 19 19 19 18 18 17 17 17 16 16 16 16 16 16 16 16 17 17 17 17 17 16 17 17 17 17 17 18 18
22 22 23 24 23 23 23 22 22 22 20 20 21 20 20 20 20 19 19 19 18 17 17 17 16 17 17 17 17 17 17 18 18 18 18 19 18 18 18 19 19 19 19 19
23 23 24 22 22 22 23 23 23 22 21 21 20 21 21 21 20 20 20 19 19 19 18 18 18 18 18 18 18 18 19 19 19 19 19 20 20 19 19 20 20 20 20 20
24 24 24 22 21 22 22 22 23 23 22 21 21 22 21 21 21 21 20 19 19 19 19 19 19 19 19 19 19 19 19 20 20 20 19 19 18 19 20 20 20 20 20 20
25 25 24 22 21 21 23 23 22 23 23 22 22 22 21 21 22 22 21 20 20 20 20 20 20 20 20 20 19 19 19 19 20 19 19 20 20 20 20 20 20 20 21 21
26 26 25 23 22 23 24 23 23 24 24 24 24 23 22 23 23 23 22 21 21 21 21 21 21 21 21 20 20 20 20 20 21 21 21 21 21 21 20 20 20 21 21 21
27 27 25 25 24 24 24 25 24 24 25 25 25 24 23 23 23 22 22 22 22 21 21 22 22 22 22 22 21 21 22 22 22 22 21 22 22 22 22 21 21 21 21 21
27 27 27 26 26 25 25 25 25 24 25 25 25 24 24 24 24 24 24 23 23 23 22 22 23 23 23 23 22 23 23 23 23 23 23 22 23 23 23 22 22 22 21 21
28 27 27 27 27 27 26 26 26 26 26 26 26 26 25 25 25 25 25 25 24 24 24 24 24 24 23 23 23 23 23 23 23 23 23 23 23 23 24 23 23 23 22 22
28 27 28 28 28 28 28 28 28 27 28 27 27 27 27 26 26 26 26 26 25 25 25 25 25 24 24 24 24 23 23 23 23 24 23 24 24 24 24 24 24 24 23 23
29 29 29 29 30 30 29 28 28 28 27 27 26 27 27 26 26 26 26 25 25 25 25 25 25 25 25 25 25 25 24 24 23 23 23 23 23 24 24 24 24 25 24 23
30 30 31 31 30 30 29 28 28 26 25 25 26 26 26 26 26 26 27 26 25 25 25 25 25 25 25 26 26 26 25 24 23 24 24 23 23 23 24 24 24 25 25 25
29 30 31 31 30 30 30 29 28 26 25 25 26 26 25 26 27 27 27 26 25 25 25 25 25 25 25 26 26 27 26 25 24 24 24 24 24 24 24 24 24 24 24 25
30 32 31 31 30 30 30 30 29 27 26 26 26 26 26 27 27 27 26 26 25 25 26 25 25 25 25 25 26 26 26 26 25 25 25 25 25 25 25 25 25 25 25 25
31 31 31 31 30 29 30 30 29 28 27 27 27 27 27 27 27 27 27 27 27 26 26 26 26 26 26 25 25 26 26 26 26 25 25 25 25 26 26 26 26 26 26 27
32 30 31 31 30 30 30 29 29 29 28 28 28 28 28 28 27 27 27 28 28 27 27 26 26 26 25 25 25 25 25 25 25 25 25 25 26 26 26 26 26 26 26 27
30 29 29 30 29 29 29 29 30 30 29 28 28 28 28 28 28 28 29 29 28 27 27 27 26 26 26 25 25 25 25 25 25 25 25 25 26 26 27 27 27 27 27 28
29 29 29 29 28 27 27 28 28 29 28 29 28 29 29 28 28 28 29 29 28 28 28 28 27 27 27 27 27 26 25 25 25 25 25 26 26 26 27 27 28 29 28 29
30 29 29 28 28 27 27 28 29 29 29 30 30 31 31 30 30 29 29 29 29 29 29 29 28 28 28 28 27 27 27 26 26 26 27 27 27 27 28 28 28 29 29 30
29 28 28 29 28 28 28 28 29 29 30 30 31 32 31 31 30 29 29 29 29 30 29 29 29 30 29 29 28 28 28 28 28 28 28 28 28 29 29 29 29 29 30 30
26 27 28 28 28 28 28 29 29 30 30 30 31 31 31 31 30 30 29 29 29 30 30 30 30 31 30 30 29 29 30 30 30 30 30 29 29 30 30 31 31 31 31 31
26 26 27 28 29 29 29 29 29 29 29 29 30 30 31 31 30 30 30 29 30 31 31 31 31 31 31 31 31 31 32 32 32 32 31 31 31 31 31 31 32 32 31 31
27 28 28 28 29 29 28 28 29 29 29 29 30 30 30 30 30 31 31 31 31 32 32 32 32 32 32 33 33 33 33 32 32 32 32 32 32 32 31 31 32 32 31 31
27 28 28 29 29 29 30 30 30 30 30 30 30 30 30 30 30 30 31 31 31 32 33 33 32 32 33 33 33 33 33 32 32 32 32 32 32 31 31 31 32 31 32 32
27 28 28 29 30 30 31 31 32 32 31 31 30 31 31 31 31 31 31 31 31 32 33 33 33 32 32 33 33 32 32 32 32 32 32 31 31 31 31 32 32 32 33 33
27 28 29 30 30 30 30 31 32 32 31 31 30 30 31 31 31 31 31 32 31 32 32 32 32 32 32 32 32 32 32 32 32 32 32 32 31 31 32 32 32 33 33 33

GEFSNGP_500_meanwind_234.txt.gz
Wind_Speed
21 21 21 21 21 20 20 19 19 18 18 18 19 19 18 19 19 19 18 18 18 18 19 19 19 19 18 18 18 17 17 17 17 17 17 16 16 17 17 17 17 17 17 16
21 21 21 22 21 21 21 20 20 20 20 19 20 20 20 20 20 20 20 20 20 20 20 20 19 19 19 19 19 19 19 18 18 18 17 18 18 18 18 18 18 18 18 17
22 21 22 23 22 21 21 21 21 21 20 20 21 21 22 22 22 21 21 22 22 22 21 21 21 21 20 20 21 20 20 19 18 18 19 19 19 19 19 19 19 19 19 19
22 22 24 22 21 21 21 21 21 22 21 21 22 22 22 23 22 22 22 22 22 22 22 23 21 21 21 22 22 21 20 20 19 19 19 19 19 19 19 20 20 20 20 20
23 24 24 23 22 22 22 22 22 22 22 22 23 23 23 23 23 23 23 23 23 23 23 23 22 22 22 22 22 22 21 20 19 19 19 19 18 18 19 19 20 20 21 21
25 25 25 24 23 23 24 24 22 23 23 23 24 24 23 23 24 24 24 24 23 23 24 24 24 23 23 22 21 21 21 20 19 19 19 20 19 19 19 20 20 21 21 21
25 25 25 24 24 23 24 24 24 24 24 24 24 24 24 24 24 25 25 25 24 24 24 24 24 23 22 21 21 21 21 20 20 20 19 19 19 19 20 20 20 20 21 21
26 27 26 25 25 25 25 26 26 25 25 25 24 24 25 25 26 26 26 25 25 24 25 25 24 24 23 22 22 22 21 21 21 21 20 20 20 20 20 20 20 20 21 21
27 27 27 26 26 26 26 27 27 27 27 26 25 25 25 26 26 27 26 26 25 24 24 24 24 24 24 23 23 23 22 22 22 22 21 21 21 20 20 20 21 21 22 22
27 27 27 27 27 27 27 27 27 27 27 27 26 26 26 25 26 27 27 27 25 25 25 24 24 24 25 24 23 23 23 23 23 22 22 22 22 21 21 21 21 22 22 23
27 27 28 28 28 28 28 28 27 27 28 27 27 26 26 25 26 27 27 27 26 26 25 25 25 25 25 25 25 24 24 24 24 24 23 22 22 22 22 22 22 23 23 23
28 27 28 28 29 29 29 28 28 28 28 27 27 27 27 26 26 26 26 27 26 26 26 26 26 26 26 26 26 25 25 24 24 24 24 24 24 23 23 24 24 24 24 23
29 29 29 29 29 30 30 30 30 28 28 27 27 27 27 27 27 26 26 27 27 26 26 26 26 26 26 26 26 26 26 26 25 25 25 25 25 25 24 24 25 25 24 24
29 29 29 29 29 30 30 31 30 29 28 28 27 27 27 28 28 27 27 27 27 26 26 26 26 27 27 26 27 27 26 26 26 26 26 25 25 25 25 25 25 25 26 25
30 30 30 30 30 29 30 30 31 31 30 29 29 28 28 28 27 27 27 28 27 27 27 27 27 27 27 27 27 26 26 26 27 26 26 26 25 25 25 26 26 26 26 26
30 31 31 31 30 30 30 30 30 30 30 29 29 29 29 28 27 27 27 28 28 27 27 27 27 28 28 28 27 26 26 27 27 27 27 27 26 26 26 26 26 26 26 27
31 30 31 31 31 30 30 30 30 29 29 28 29 29 29 28 27 27 27 27 27 27 27 28 28 28 28 28 28 27 27 27 28 28 28 27 27 27 27 27 27 27 27 27
30 30 31 31 31 31 30 29 28 28 29 28 28 28 28 28 27 28 28 28 28 28 28 28 28 28 28 28 29 29 29 29 29 29 29 28 28 28 28 28 28 27 27 27
29 30 30 30 29 30 30 28 28 27 28 28 28 28 28 28 29 29 29 29 29 28 28 28 29 29 29 29 30 30 30 30 31 30 30 29 29 29 29 29 28 28 28 28
29 30 30 30 29 28 27 26 26 27 27 28 28 28 28 28 29 29 29 29 29 28 28 29 29 29 29 30 30 30 31 31 31 31 31 31 30 30 30 30 29 29 29 28
28 28 29 29 28 27 26 26 26 27 27 27 27 27 28 28 28 28 29 29 29 29 29 30 30 29 29 30 30 30 31 31 31 31 31 31 31 31 31 31 31 30 30 29
27 27 28 27 27 26 26 26 26 26 25 25 25 26 26 27 27 28 29 30 30 30 30 30 31 30 30 30 30 30 31 31 31 32 31 31 31 31 31 31 31 31 31 31
25 25 25 25 25 26 26 25 26 25 25 25 26 26 27 27 28 28 28 29 30 31 31 31 31 31 31 31 31 31 31 32 31 31 31 32 32 32 31 31 31 31 31 31
24 23 23 24 24 25 25 25 25 25 25 25 26 26 27 27 28 28 28 28 29 30 31 31 32 32 31 31 31 31 32 31 31 32 32 32 33 32 32 32 32 32 32 32
22 22 23 24 25 26 26 26 26 26 26 25 25 26 27 27 27 27 28 28 29 30 30 30 31 31 31 31 31 31 31 31 31 32 32 32 32 33 32 32 32 32 32 32
23 24 24 25 25 26 27 27 26 26 26 26 26 26 27 27 27 27 27 27 27 28 29 29 30 30 30 30 30 30 31 31 32 32 32 32 32 32 32 32 32 31 31 32
24 24 25 25 25 25 27 27 27 27 26 26 26 26 26 26 26 26 26 26 26 27 27 28 28 29 30 30 30 31 31 31 31 32 32 32 32 32 32 32 32 32 32 31

GEFSNGP_500_meanwind_240.txt.gz
Wind_Speed
22 22 21 21 20 20 21 22 22 21 21 22 23 23 22 22 21 20 20 20 21 21 21 21 21 20 20 20 20 19 19 19 19 18 19 19 18 19 19 19 19 19 19 19
23 23 23 23 22 22 23 23 24 23 22 22 24 24 23 23 23 22 21 22 22 23 23 22 22 21 21 21 21 20 20 20 20 19 19 19 19 19 19 19 20 20 20 20
24 24 25 25 23 24 24 24 24 24 24 23 24 24 24 25 25 25 24 23 23 23 24 24 23 23 22 22 23 22 22 22 22 21 20 20 20 20 20 20 20 20 20 20
26 25 27 26 24 25 26 26 25 25 25 25 25 26 26 26 27 26 25 25 25 25 25 24 24 24 24 24 24 24 23 23 23 22 22 21 21 20 20 20 20 20 20 20
26 27 27 26 25 25 25 26 26 26 27 27 27 27 28 27 27 28 27 27 27 27 27 26 25 25 25 25 25 25 24 24 24 24 23 22 21 21 20 20 20 20 20 20
28 28 28 27 25 26 26 27 26 26 27 28 28 29 29 28 28 28 28 28 28 28 28 27 27 27 26 25 25 25 25 24 24 24 23 22 21 21 21 20 20 21 21 21
29 29 29 28 28 27 27 27 27 27 28 29 29 30 30 30 30 29 28 29 29 29 29 29 28 28 27 26 25 25 26 25 24 24 23 22 22 22 21 21 21 21 21 21
29 30 30 28 27 28 28 28 28 28 29 30 30 30 30 31 31 30 30 29 30 30 30 29 29 28 27 27 26 26 26 25 24 24 23 23 22 22 21 21 21 21 21 21
28 29 29 28 28 29 29 29 29 29 30 30 30 31 30 31 31 31 31 30 30 30 30 29 29 28 28 27 26 26 26 25 25 24 23 23 23 22 22 21 21 21 21 21
28 28 29 28 29 30 30 30 30 30 30 31 31 31 31 31 31 31 31 31 30 30 30 30 29 28 28 28 27 26 26 25 25 25 24 23 23 23 23 23 22 22 22 22
30 29 30 29 29 29 30 31 31 30 30 32 32 32 32 31 31 31 30 30 30 30 29 29 29 28 28 28 27 26 26 26 26 25 25 24 24 24 24 24 24 24 24 24
30 30 31 30 30 31 31 31 32 32 32 32 32 32 32 31 31 30 31 31 30 30 29 29 29 28 28 28 27 26 26 26 26 26 26 25 25 24 25 25 25 25 25 25
30 31 32 31 31 31 31 32 33 34 34 33 33 33 33 32 31 30 30 31 30 29 29 29 29 29 29 28 28 27 27 27 26 26 27 26 26 25 25 25 25 25 26 25
30 31 32 32 31 30 30 32 33 33 33 33 33 33 33 32 31 30 30 30 30 30 29 30 29 29 29 29 29 28 28 28 28 27 27 27 27 26 26 26 26 26 27 27
29 30 31 31 31 31 32 32 33 34 34 34 33 32 31 32 32 31 31 31 30 30 30 30 30 30 31 30 30 29 29 29 29 29 28 28 27 27 27 28 28 28 28 28
29 30 30 31 32 32 33 33 33 33 33 33 33 33 33 33 32 32 32 32 31 30 31 31 31 31 32 31 30 30 30 30 30 30 29 29 29 28 28 28 28 29 29 29
31 30 30 31 32 33 34 34 34 33 33 33 33 33 33 33 33 32 31 32 32 31 31 31 31 31 31 31 30 30 31 30 30 30 30 30 30 30 30 29 29 30 30 30
31 30 30 32 32 33 34 34 34 33 33 33 33 32 32 32 31 31 30 30 31 31 31 31 31 30 30 31 30 30 29 29 29 29 30 30 30 30 30 30 30 30 30 31
30 31 31 32 32 33 33 33 33 33 32 32 32 32 32 31 31 31 30 30 30 30 30 31 30 30 30 29 29 29 29 29 29 30 29 30 31 31 31 30 30 30 30 31
31 31 31 31 31 31 31 31 31 31 31 31 31 31 31 31 31 31 31 31 30 30 30 30 30 30 30 29 29 29 29 29 29 30 30 30 31 30 31 31 30 30 30 31
31 32 32 31 31 31 31 30 30 30 30 30 30 30 30 31 31 31 31 30 29 30 30 30 29 30 30 30 30 30 31 30 30 30 31 31 31 31 31 31 31 31 31 31
30 30 30 30 30 30 30 30 30 30 30 30 30 29 29 29 29 30 30 30 29 29 29 30 30 29 29 30 31 31 31 31 31 32 32 32 33 33 33 32 32 32 32 32
29 29 29 29 29 29 29 30 30 30 30 30 30 29 28 28 28 28 28 29 29 28 29 29 30 30 30 30 30 31 31 32 32 32 33 33 34 34 33 33 33 33 33 33
28 29 29 29 28 28 28 29 29 29 29 29 29 29 29 28 28 27 28 29 29 29 29 29 30 31 31 31 31 31 31 31 32 33 33 33 33 33 33 33 34 34 34 33
27 27 27 28 28 28 28 28 28 29 29 29 29 29 29 28 28 27 27 28 28 28 28 28 29 30 31 30 30 31 31 31 32 32 33 33 32 33 33 33 33 33 33 33
27 27 27 27 27 27 27 28 28 28 29 29 29 28 28 28 28 28 28 27 27 27 27 28 29 30 30 30 31 31 31 32 32 32 32 32 32 32 33 34 34 34 33 34
25 25 26 26 26 26 27 27 28 28 28 29 28 27 27 27 27 28 28 27 27 27 27 27 28 29 30 31 31 32 31 32 32 32 33 33 33 32 32 33 33 33 33 32

GEFSNGP_500_meanwind_246.txt.gz
Wind_Speed
20 19 20 20 19 20 20 21 21 21 20 19 19 19 18 19 19 18 18 18 18 18 18 19 19 19 19 19 19 19 19 19 19 19 18 18 18 18 18 18 18 18 18 19
22 21 22 22 21 22 22 22 22 22 21 20 21 21 21 21 21 20 20 20 20 20 20 20 20 20 20 20 20 20 20 20 20 20 20 20 19 19 19 19 19 18 18 19
25 24 24 24 22 23 23 23 23 22 21 22 22 22 23 23 23 23 22 22 23 23 22 22 22 22 21 21 21 21 21 21 22 22 22 22 21 21 20 20 20 19 18 18
26 27 28 25 24 24 24 24 24 23 23 23 24 24 25 25 25 25 25 24 24 24 24 24 23 23 23 22 22 23 23 23 23 23 23 23 22 22 21 21 20 20 20 19
27 28 29 27 25 25 25 25 25 25 25 25 25 26 26 27 27 27 27 26 25 25 25 25 25 24 25 24 24 24 24 23 24 23 23 23 22 22 21 21 21 20 21 20
29 30 30 27 26 25 26 26 26 27 27 26 26 27 27 27 28 27 27 27 27 26 26 26 26 25 25 26 25 25 24 24 24 24 23 23 23 22 22 22 21 21 21 21
30 30 30 27 27 27 27 27 27 28 28 28 28 28 28 28 29 29 28 28 28 28 27 27 27 27 26 26 27 26 25 24 24 24 24 23 23 23 23 22 22 22 22 21
29 30 29 27 26 27 27 28 28 29 29 29 29 29 29 29 29 29 29 29 29 29 29 29 29 29 28 28 28 28 26 25 25 26 25 24 24 24 24 24 24 23 23 22
28 29 28 27 27 27 28 28 29 29 29 29 29 29 30 30 31 30 30 30 30 29 29 29 30 30 30 30 29 28 27 26 26 27 26 25 25 25 25 25 24 24 23 23
27 28 28 28 29 28 29 29 29 29 29 29 29 30 30 30 31 31 31 31 31 30 30 30 30 31 31 30 29 28 28 27 26 27 26 26 25 25 24 25 25 25 24 24
27 27 28 28 29 29 28 28 29 29 29 30 30 30 31 31 31 32 32 32 31 30 31 31 31 31 30 30 29 29 28 27 27 27 27 27 26 26 25 25 25 25 25 25
26 27 27 27 28 28 28 29 29 29 29 30 30 31 32 33 33 32 32 32 31 30 30 30 30 30 30 30 29 29 29 28 27 27 27 27 27 27 26 26 26 26 26 27
27 27 28 28 28 28 29 29 30 30 30 30 31 32 32 32 33 33 32 31 31 31 30 30 29 28 29 30 30 30 29 29 29 28 28 28 28 27 27 27 27 27 27 27
27 28 28 28 29 29 29 29 30 30 30 30 31 32 32 32 33 33 33 31 31 31 30 30 29 29 30 30 31 30 30 30 30 30 29 30 29 28 28 28 28 27 27 28
27 28 28 29 29 29 30 31 31 32 31 31 31 33 33 33 33 33 34 33 32 31 31 31 31 31 31 32 32 31 31 31 32 31 31 31 30 29 29 29 29 28 28 28
27 28 28 28 28 29 30 31 31 31 31 31 32 33 33 34 34 34 34 33 33 32 31 31 31 31 32 33 33 32 32 32 33 32 32 31 31 30 30 29 29 29 29 29
26 26 27 28 29 30 31 31 31 31 31 31 32 33 33 32 32 33 33 33 33 32 31 31 32 31 32 33 33 33 33 32 32 32 32 32 31 31 30 30 30 29 30 30
27 28 29 29 30 31 31 31 32 31 31 31 32 32 32 32 32 32 32 33 33 32 31 31 32 31 31 31 32 32 32 32 32 32 32 32 31 31 30 30 30 30 30 30
28 29 29 29 30 30 30 31 31 31 31 31 31 31 31 31 31 31 31 31 32 31 31 31 32 32 31 31 32 32 31 31 32 31 31 31 31 31 31 30 31 31 31 30
28 29 29 29 30 31 30 30 31 31 31 31 31 32 31 31 31 30 30 30 30 30 31 31 31 31 31 31 31 32 32 31 31 31 31 32 31 31 31 31 31 31 31 32
28 29 29 30 30 30 30 31 31 30 29 29 30 30 30 30 30 30 29 29 29 29 29 30 30 30 31 31 31 31 31 31 31 31 31 32 31 31 30 31 32 32 32 32
28 29 29 29 29 29 30 30 30 30 30 29 29 29 29 29 29 29 29 28 29 29 30 30 31 31 32 32 32 32 32 31 31 30 30 31 30 30 30 31 31 31 31 31
28 28 29 29 29 29 29 29 29 30 30 29 29 29 29 30 29 29 29 29 29 30 30 31 31 31 31 32 32 32 31 31 32 31 31 31 30 30 31 31 32 32 32 32
28 28 29 29 29 29 28 28 29 29 29 29 29 30 30 30 30 30 30 29 30 30 30 30 31 30 30 31 31 31 32 32 31 31 31 32 32 31 31 32 33 33 33 33
27 28 28 28 28 28 28 28 28 28 28 29 30 30 30 30 30 30 30 30 30 30 30 29 29 29 30 30 31 31 31 31 31 31 32 32 32 32 32 32 33 34 34 34
27 27 27 28 28 28 27 27 27 27 28 29 29 30 30 30 29 29 29 29 28 28 28 28 28 28 28 29 29 30 31 31 32 32 33 33 33 33 33 33 33 34 34 34
25 26 26 26 26 26 27 26 26 27 27 27 28 28 28 28 28 27 26 26 26 27 27 27 28 27 27 28 28 29 30 31 32 33 33 33 33 33 33 33 33 33 34 34

GEFSNGP_500_meanwind_252.txt.gz
Wind_Speed
21 21 20 20 21 21 21 21 22 21 20 19 19 19 19 20 20 19 19 19 19 19 19 19 19 20 20 20 20 21 20 20 21 21 20 19 19 19 20 19 19 19 19 19
22 22 23 23 22 23 23 23 23 23 22 20 20 21 21 21 21 21 21 20 20 21 20 21 21 21 21 21 21 21 21 21 21 20 20 19 19 20 20 20 20 20 20 19
24 24 25 24 23 24 25 24 25 25 24 23 23 22 23 22 22 22 22 22 22 22 22 22 22 22 22 21 21 21 21 21 21 21 21 20 21 21 21 21 21 21 20 20
26 26 27 25 24 24 26 26 26 27 26 26 25 25 24 24 24 24 24 24 23 23 23 23 23 23 23 23 23 22 23 23 22 22 22 21 21 22 22 22 22 21 21 22
28 28 28 27 26 25 26 27 27 28 27 27 27 27 26 26 26 26 26 25 25 25 25 25 25 25 25 25 24 24 24 24 23 23 22 22 22 22 22 22 23 23 23 23
28 29 29 27 27 27 28 29 28 28 29 29 28 28 27 28 28 28 28 27 27 26 26 26 26 26 26 26 26 25 25 24 24 23 23 23 23 24 24 24 24 24 24 23
29 30 30 29 28 28 29 29 29 29 29 29 29 29 29 29 29 30 30 29 29 28 28 27 27 27 27 27 27 27 26 26 25 24 24 24 25 25 25 25 26 26 25 24
30 31 30 29 30 30 30 29 29 29 29 29 29 30 30 30 30 30 30 31 30 30 30 29 29 29 28 28 28 28 28 27 26 26 25 25 26 26 26 26 26 26 26 25
29 30 30 31 31 30 30 30 30 30 30 30 31 31 31 30 30 30 31 31 32 32 32 31 31 31 30 29 29 29 29 29 28 28 28 27 27 27 27 26 26 26 26 26
28 29 30 31 30 29 30 31 31 31 31 31 32 33 33 32 32 32 32 32 33 33 33 32 32 33 32 31 31 31 30 30 30 30 29 29 29 28 28 28 28 27 27 27
28 28 30 30 31 31 31 31 31 32 32 31 32 32 32 33 33 33 33 33 33 33 33 33 33 33 33 33 32 32 31 32 32 32 31 31 30 29 29 29 29 29 29 28
27 28 29 30 31 31 31 31 32 32 31 32 32 32 33 33 32 33 33 33 32 32 32 32 32 32 33 34 33 33 32 33 33 33 32 32 31 30 30 30 30 30 30 29
28 28 29 29 29 30 30 31 31 31 31 32 32 33 33 33 32 32 32 32 32 32 32 32 32 33 33 34 34 34 34 33 34 34 34 33 32 32 31 31 32 32 32 31
28 28 29 29 29 29 30 30 30 31 31 31 32 32 32 33 33 33 33 33 33 33 33 33 33 33 34 35 35 35 35 34 34 34 35 35 35 34 34 33 33 32 33 33
27 28 29 30 30 29 29 30 30 31 31 31 31 31 32 32 33 33 33 33 34 34 33 33 33 34 34 34 35 35 35 34 35 36 36 35 36 35 35 35 34 34 34 34
27 27 28 29 28 28 29 30 30 31 31 31 31 32 33 33 33 33 33 33 34 34 34 34 35 34 34 35 35 35 35 35 36 36 36 36 36 35 35 35 35 34 34 34
27 27 28 28 28 29 29 30 31 31 32 32 32 32 33 33 34 34 34 34 34 34 34 34 34 34 35 35 35 35 35 36 36 37 37 37 37 37 37 36 36 36 35 34
28 29 29 30 30 30 30 30 31 31 31 32 32 33 34 34 35 35 35 35 35 35 34 34 34 33 34 34 35 35 36 36 36 37 37 38 38 38 38 37 38 37 35 34
28 29 30 30 30 30 30 30 31 30 31 32 32 32 33 33 34 35 35 35 35 35 34 33 33 33 33 33 34 35 36 36 36 37 37 38 38 38 38 38 38 38 37 36
29 29 29 29 29 30 30 30 30 30 31 31 31 32 33 34 34 35 35 35 34 34 34 34 34 34 34 34 35 35 36 35 35 36 36 36 36 36 36 36 36 36 36 35
29 29 29 29 29 30 30 31 31 31 31 32 32 32 33 33 34 34 34 33 32 33 33 33 34 34 35 35 35 36 36 35 35 35 35 35 35 35 35 35 35 35 34 34
29 29 29 29 29 29 30 31 31 32 32 32 32 33 33 33 32 32 33 32 32 33 33 33 33 33 33 34 34 35 34 34 34 34 34 34 34 34 35 34 34 34 34 34
29 29 29 30 30 31 31 31 31 32 32 32 32 33 33 33 32 32 32 32 32 33 33 32 32 32 32 33 33 33 33 32 33 34 34 34 34 34 34 34 33 33 33 34
29 29 29 30 30 30 30 30 31 31 32 32 32 32 32 32 31 31 32 32 32 32 32 31 32 32 33 33 32 32 31 31 32 32 32 32 33 33 32 32 32 32 32 33
28 29 29 29 29 29 29 30 30 31 31 31 30 30 30 30 30 30 30 30 30 30 30 30 31 31 31 31 31 30 30 29 30 30 31 32 32 31 31 31 32 32 32 32
28 28 28 28 29 29 29 30 30 30 28 28 29 29 28 28 28 28 28 28 29 29 29 29 29 29 29 28 28 28 28 28 29 29 29 30 30 31 31 30 30 30 31 31
27 27 27 28 28 28 29 29 29 28 27 27 27 26 26 27 27 27 27 26 26 26 26 26 26 26 26 26 27 27 27 28 28 29 29 29 29 30 30 30 30 30 31 31

GEFSNGP_500_meanwind_258.txt.gz
Wind_Speed
18 19 19 20 20 20 21 21 22 21 20 19 19 19 20 20 20 20 20 20 20 20 20 20 20 21 20 20 20 20 20 20 20 20 19 19 19 19 19 19 19 19 19 19
19 20 20 21 21 21 21 22 23 22 21 21 21 21 21 21 22 22 22 22 22 21 21 21 21 21 22 21 21 21 22 22 21 21 21 21 20 20 20 19 19 19 19 19
21 21 22 22 21 22 22 23 23 24 23 22 23 23 23 23 23 23 23 24 23 23 23 22 22 22 23 22 22 22 23 23 22 23 22 21 21 21 21 20 20 20 20 20
22 23 24 24 23 23 24 24 24 25 24 24 24 24 24 24 24 24 25 25 25 25 24 24 24 24 24 24 24 24 23 23 23 23 23 22 22 22 22 22 22 21 21 21
24 24 25 24 24 24 25 25 25 25 25 25 25 26 25 26 26 26 26 26 26 26 26 26 26 26 26 25 25 25 25 25 24 24 23 24 23 23 23 23 23 22 22 22
25 25 26 25 24 25 25 25 25 26 26 26 26 27 27 27 27 27 27 27 27 27 27 27 27 27 27 27 26 26 26 26 26 25 25 25 25 25 25 25 24 24 24 24
25 26 26 25 25 25 25 25 25 25 26 27 27 27 27 27 27 28 28 28 28 28 28 28 28 28 28 28 28 28 28 27 27 27 27 27 27 27 27 26 26 26 26 26
26 26 26 26 26 26 26 27 26 26 26 27 27 27 27 27 27 28 28 29 29 29 29 30 29 29 29 29 29 30 30 29 29 29 29 28 28 28 28 28 28 28 27 27
26 26 26 27 28 28 28 28 28 27 27 27 27 27 27 28 28 28 29 30 30 30 30 31 31 31 30 31 30 30 31 31 30 30 30 29 29 29 29 29 30 30 29 29
26 26 27 28 28 28 29 29 29 29 28 28 28 28 28 28 28 29 30 30 30 31 31 32 32 32 31 31 31 31 31 31 31 32 31 31 31 31 31 31 31 31 31 31
27 27 28 28 28 29 29 29 30 29 29 29 29 29 29 29 29 30 30 31 31 31 32 32 32 33 33 32 32 32 31 31 32 32 32 32 32 32 32 32 32 32 32 32
27 27 28 28 28 29 30 29 29 30 30 30 30 29 30 30 30 31 31 31 31 31 32 32 32 32 33 33 33 33 33 32 32 33 33 34 34 34 35 34 34 34 34 34
28 28 29 28 29 29 29 29 30 30 30 30 30 31 31 31 30 30 30 31 31 32 32 32 32 33 33 34 34 34 35 34 34 34 34 35 35 36 36 36 36 36 35 35
28 28 28 28 29 29 29 29 30 30 30 30 31 31 30 31 31 31 31 31 31 31 31 32 33 33 33 34 35 35 35 36 36 36 35 35 35 36 36 36 36 36 36 35
28 28 28 28 28 29 29 29 29 29 29 30 30 30 30 31 31 31 31 31 32 32 32 33 33 34 34 35 35 35 35 36 36 36 37 37 36 37 37 37 37 37 37 37
27 28 28 28 28 28 29 29 29 29 29 29 30 30 30 30 31 31 32 32 32 32 32 33 33 34 35 35 36 36 36 36 37 37 38 38 38 38 38 38 38 38 39 38
26 27 27 27 28 28 29 29 29 30 30 31 31 30 30 31 31 32 32 33 33 33 33 33 33 34 34 34 35 36 36 37 37 38 38 38 38 39 39 39 40 40 40 39
26 26 27 28 28 28 28 28 29 29 30 31 31 30 30 31 32 32 33 34 34 33 33 34 34 34 34 35 35 36 36 37 38 38 39 39 39 39 39 40 40 40 40 40
26 26 26 27 27 28 28 29 29 30 31 31 31 31 31 32 32 33 33 33 33 33 33 34 34 35 35 34 35 36 36 37 38 38 38 38 39 39 38 39 39 39 39 39
26 26 26 27 27 28 29 30 30 31 31 31 31 31 31 32 32 33 32 32 33 32 33 33 33 33 33 33 34 34 35 36 36 37 38 38 38 38 38 38 38 38 38 39
26 26 26 27 27 28 29 30 30 30 30 30 30 30 30 31 31 32 31 30 30 30 31 31 31 31 31 31 31 31 32 33 34 35 36 36 36 36 37 37 37 36 36 37
27 27 27 27 28 29 29 29 29 30 29 30 30 29 30 31 31 31 30 30 29 29 30 31 30 30 30 30 31 31 31 32 32 33 34 34 34 34 35 35 35 35 35 35
28 28 28 28 28 29 29 29 30 30 30 30 29 29 29 29 29 29 29 29 29 29 30 29 29 29 29 30 30 30 31 31 31 32 32 32 32 32 32 32 32 32 33 33
29 28 28 28 28 29 29 30 30 30 30 29 28 28 28 28 27 26 27 28 29 29 29 29 29 29 29 29 29 29 29 29 29 29 30 29 29 29 29 29 30 30 31 32
29 29 29 29 29 29 29 29 29 28 28 28 28 28 27 26 26 26 26 26 27 27 28 28 28 28 28 28 28 28 28 27 27 27 27 28 28 28 28 28 29 29 30 31
28 28 28 28 28 28 28 28 27 27 27 26 26 26 26 26 25 25 25 26 26 27 27 26 26 26 26 26 26 26 26 26 27 27 26 25 26 27 27 27 28 28 29 29
27 27 28 28 28 28 28 27 26 25 25 25 24 24 24 24 24 25 25 24 25 25 26 25 25 25 24 24 24 25 25 25 25 26 26 25 26 26 25 26 27 28 28 28

GEFSNGP_500_meanwind_264.txt.gz
Wind_Speed
19 19 20 19 19 19 20 21 22 22 22 23 23 24 24 24 23 22 22 21 21 21 21 21 21 20 20 20 20 20 20 20 20 20 19 19 19 19 19 19 19 19 19 19
20 20 21 22 21 22 22 22 23 24 24 25 24 25 26 25 25 24 23 23 23 23 23 23 23 22 22 22 22 22 22 21 21 20 20 20 20 21 21 21 21 21 20 20
21 21 23 23 22 23 24 24 25 25 25 26 26 26 26 27 27 26 25 25 25 25 25 25 25 24 24 24 24 24 24 23 23 22 23 22 22 23 23 24 23 23 22 22
22 23 25 23 23 24 25 25 25 26 26 26 27 28 27 27 27 28 27 26 27 27 26 26 26 26 26 26 26 26 25 25 25 25 25 24 24 25 25 25 25 25 24 23
23 24 25 25 24 24 25 25 26 26 27 27 27 28 29 29 29 28 28 28 28 29 28 27 27 28 28 28 28 27 27 27 27 27 27 27 26 26 26 26 26 26 25 25
24 25 26 25 25 25 26 27 27 27 26 27 27 29 29 29 29 29 28 29 30 30 30 29 29 29 29 29 29 29 29 29 29 28 28 28 28 28 27 26 26 25 26 26
25 26 26 26 26 26 27 28 28 28 27 27 27 28 29 30 30 30 30 30 31 31 31 31 30 30 30 30 30 30 31 31 31 30 30 29 29 29 29 28 28 28 27 27
25 26 27 27 27 28 28 29 29 30 29 29 29 29 29 30 30 31 31 31 31 31 31 32 31 31 31 31 31 32 32 32 32 32 32 31 31 30 30 30 30 30 30 29
27 27 27 27 28 29 30 31 31 31 30 30 30 30 31 31 31 32 32 32 32 32 32 32 32 32 32 32 32 33 33 32 32 32 32 32 32 32 32 32 32 32 32 31
28 27 28 29 29 30 30 31 32 32 32 32 32 32 32 32 33 32 32 32 32 32 32 32 33 34 33 33 33 34 34 34 33 33 32 32 33 33 33 33 33 33 34 33
29 29 30 30 30 31 31 32 33 33 33 33 33 33 34 34 33 32 32 33 33 34 33 33 34 35 34 35 35 35 35 35 35 34 34 34 34 34 33 34 34 34 34 34
30 30 31 31 32 33 33 33 33 33 33 33 34 34 34 33 34 34 33 33 34 35 35 35 35 35 35 36 36 37 37 37 36 36 36 35 35 35 34 34 35 35 35 35
31 31 32 32 33 33 33 33 33 33 34 34 34 34 33 33 33 34 35 35 34 34 35 36 36 36 36 36 37 37 38 38 38 37 37 37 36 36 36 36 36 36 36 36
31 31 32 32 32 33 33 33 34 34 34 34 34 33 33 34 34 35 35 35 35 35 36 36 36 36 36 36 37 37 38 38 38 38 38 38 37 37 37 36 36 36 37 37
31 31 31 31 32 32 32 33 33 33 33 32 32 32 33 33 33 34 34 35 36 36 36 36 35 35 36 36 37 37 36 36 37 37 38 38 38 38 38 38 38 38 38 38
29 30 30 30 30 31 31 32 32 31 31 31 32 32 33 33 34 34 35 35 36 35 35 35 35 34 34 34 34 34 34 36 37 37 37 37 38 39 39 39 39 40 40 39
29 29 29 29 29 29 30 30 30 31 31 31 31 31 32 33 33 34 34 35 34 34 34 34 34 34 34 34 34 34 34 35 35 35 35 36 37 38 39 39 39 39 39 39
29 29 29 29 29 29 29 29 29 29 30 30 31 31 31 32 33 33 33 33 33 33 33 33 34 35 35 35 35 34 34 35 35 35 36 36 37 37 37 38 38 38 38 38
27 28 28 28 28 29 29 28 29 29 30 30 30 31 32 32 32 32 32 32 32 32 32 32 33 34 34 34 35 35 35 35 36 37 37 36 37 37 38 38 38 38 37 37
27 27 27 28 28 29 29 29 29 29 30 30 30 31 32 32 32 32 32 32 32 32 32 32 31 32 32 33 34 34 34 35 36 36 36 36 36 37 37 38 38 38 38 38
27 28 28 28 28 29 29 29 29 29 30 31 31 32 32 32 32 32 32 31 31 32 32 32 32 33 33 33 33 33 34 35 35 35 36 36 36 36 36 37 36 37 37 37
28 28 28 29 29 28 29 29 29 30 30 31 31 31 31 31 31 31 31 31 31 31 32 32 32 32 32 33 34 34 34 35 35 35 35 36 36 35 35 35 36 37 37 37
29 29 28 28 28 28 29 29 30 31 31 31 31 32 32 31 31 30 30 30 30 30 31 31 31 31 32 33 33 33 33 33 34 34 34 35 35 35 34 35 35 36 36 36
29 29 29 29 30 30 30 30 31 31 32 32 32 32 32 31 31 31 31 31 30 30 30 30 30 30 31 32 32 32 32 33 33 33 33 33 33 33 33 34 34 34 34 35
29 29 29 30 30 31 31 31 31 32 32 32 32 32 32 32 32 31 32 31 31 31 30 29 29 29 30 31 31 31 31 31 31 31 32 32 32 32 32 32 32 32 33 33
29 29 29 30 30 30 30 31 32 32 32 32 31 31 32 32 31 31 31 31 30 30 29 28 28 28 29 30 30 30 29 29 29 30 30 30 30 31 31 32 32 32 32 32
29 29 29 30 30 30 30 31 32 31 31 31 32 32 32 32 31 30 30 30 30 29 28 28 27 27 28 28 28 28 28 29 29 29 29 30 29 29 29 29 30 30 30 30